Time,TemperatureF,DewpointF,PressureIn,WindDirection,WindDirectionDegrees,WindSpeedMPH,WindSpeedGustMPH,Humidity,HourlyPrecipIn,Conditions,Clouds,dailyrainin,SoftwareType,DateUTC
2013-05-24 00:01:00,70.7,39.4,29.74,WSW,248,3.6,6.0,32,7.71,,---,0.00,VWS V14.00,2013-05-24 04:01:00,
2013-05-24 00:02:00,70.9,39.6,29.74,SSW,202,6.5,6.5,32,7.71,,---,0.00,VWS V14.00,2013-05-24 04:02:00,
2013-05-24 00:07:00,70.9,39.6,29.74,WSW,248,8.1,8.1,32,7.71,,---,0.00,VWS V14.00,2013-05-24 04:07:00,
2013-05-24 00:08:00,70.9,39.6,29.74,SSW,202,3.1,8.1,32,7.71,,---,0.00,VWS V14.00,2013-05-24 04:08:00,
2013-05-24 00:11:00,70.9,39.6,29.74,SSW,202,8.5,8.5,32,7.71,,---,0.00,VWS V14.00,2013-05-24 04:11:00,
2013-05-24 00:14:00,70.7,39.4,29.74,SW,225,3.8,6.0,32,7.71,,---,0.00,VWS V14.00,2013-05-24 04:14:00,
2013-05-24 00:15:00,70.9,39.6,29.74,SSW,202,4.0,4.0,32,7.71,,---,0.00,VWS V14.00,2013-05-24 04:15:00,
2013-05-24 00:17:00,70.9,39.6,29.74,SSW,202,3.4,3.8,32,7.71,,---,0.00,VWS V14.00,2013-05-24 04:17:00,
2013-05-24 00:18:00,70.9,39.6,29.74,West,270,2.5,5.4,32,7.71,,---,0.00,VWS V14.00,2013-05-24 04:18:00,
2013-05-24 00:19:00,70.9,39.6,29.74,SSW,202,3.1,4.9,32,7.71,,---,0.00,VWS V14.00,2013-05-24 04:19:00,
2013-05-24 00:22:00,70.9,39.6,29.74,SSW,202,2.5,4.3,32,7.71,,---,0.00,VWS V14.00,2013-05-24 04:22:00,
2013-05-24 00:23:00,71.1,39.7,29.74,WSW,248,2.5,2.7,32,7.71,,---,0.00,VWS V14.00,2013-05-24 04:23:00,
2013-05-24 00:24:00,71.1,39.7,29.74,WSW,248,3.8,3.8,32,7.71,,---,0.00,VWS V14.00,2013-05-24 04:24:00,
2013-05-24 00:25:00,71.1,40.5,29.74,WSW,248,4.9,4.9,33,7.71,,---,0.00,VWS V14.00,2013-05-24 04:25:00,
2013-05-24 00:28:00,71.1,40.5,29.74,WNW,292,4.3,4.9,33,7.71,,---,0.00,VWS V14.00,2013-05-24 04:28:00,
2013-05-24 00:30:00,71.2,40.7,29.74,SSW,202,2.2,5.6,33,7.71,,---,0.00,VWS V14.00,2013-05-24 04:30:00,
2013-05-24 00:33:00,71.4,40.8,29.74,SSW,202,7.2,7.2,33,7.71,,---,0.00,VWS V14.00,2013-05-24 04:33:00,
2013-05-24 00:35:00,71.4,40.8,29.74,WNW,292,3.1,4.0,33,7.71,,---,0.00,VWS V14.00,2013-05-24 04:35:00,
2013-05-24 00:36:00,71.4,40.8,29.74,SW,225,5.4,5.4,33,7.71,,---,0.00,VWS V14.00,2013-05-24 04:36:00,
2013-05-24 00:40:00,71.6,41.0,29.74,WSW,248,2.5,4.9,33,7.71,,---,0.00,VWS V14.00,2013-05-24 04:40:00,
2013-05-24 00:41:00,71.6,41.0,29.74,SSW,202,4.9,6.0,33,7.71,,---,0.00,VWS V14.00,2013-05-24 04:41:00,
2013-05-24 00:42:00,71.6,41.0,29.74,WSW,248,4.0,4.9,33,7.71,,---,0.00,VWS V14.00,2013-05-24 04:42:00,
2013-05-24 00:43:00,71.6,41.0,29.74,SW,225,2.0,4.0,33,7.71,,---,0.00,VWS V14.00,2013-05-24 04:43:00,
2013-05-24 00:48:00,71.6,41.0,29.74,WSW,248,3.6,5.8,33,7.71,,---,0.00,VWS V14.00,2013-05-24 04:48:00,
2013-05-24 00:49:00,71.8,41.2,29.74,WSW,248,3.1,7.4,33,7.71,,---,0.00,VWS V14.00,2013-05-24 04:49:00,
2013-05-24 00:52:00,71.8,41.2,29.74,SSW,202,4.0,4.0,33,7.71,,---,0.00,VWS V14.00,2013-05-24 04:52:00,
2013-05-24 00:54:00,71.8,41.2,29.74,SW,225,6.5,6.5,33,7.71,,---,0.00,VWS V14.00,2013-05-24 04:54:00,
2013-05-24 00:55:00,71.8,41.2,29.74,West,270,3.1,6.5,33,7.71,,---,0.00,VWS V14.00,2013-05-24 04:55:00,
2013-05-24 00:56:00,71.8,41.2,29.74,SSW,202,2.5,5.4,33,7.71,,---,0.00,VWS V14.00,2013-05-24 04:56:00,
2013-05-24 00:58:00,71.8,41.2,29.74,WSW,248,2.5,5.8,33,7.71,,---,0.00,VWS V14.00,2013-05-24 04:58:00,
2013-05-24 01:00:00,71.8,41.2,29.74,South,180,0.0,4.3,33,7.71,,---,0.00,VWS V14.00,2013-05-24 05:00:00,
2013-05-24 01:01:00,71.8,41.2,29.74,SSW,202,0.0,2.0,33,7.71,,---,0.00,VWS V14.00,2013-05-24 05:01:00,
2013-05-24 01:03:00,71.8,41.2,29.74,SSW,202,2.9,7.6,33,7.71,,---,0.00,VWS V14.00,2013-05-24 05:03:00,
2013-05-24 01:06:00,71.8,41.2,29.71,WSW,248,2.0,3.4,33,7.71,,---,0.00,VWS V14.00,2013-05-24 05:06:00,
2013-05-24 01:08:00,71.8,41.2,29.71,SSE,158,3.1,3.4,33,7.71,,---,0.00,VWS V14.00,2013-05-24 05:08:00,
2013-05-24 01:09:00,71.8,41.2,29.71,WNW,292,3.6,3.6,33,7.71,,---,0.00,VWS V14.00,2013-05-24 05:09:00,
2013-05-24 01:10:00,71.8,41.2,29.71,WSW,248,3.4,5.4,33,7.71,,---,0.00,VWS V14.00,2013-05-24 05:10:00,
2013-05-24 01:15:00,71.8,41.2,29.71,SSW,202,6.3,6.3,33,7.71,,---,0.00,VWS V14.00,2013-05-24 05:15:00,
2013-05-24 01:17:00,71.8,41.2,29.71,SW,225,6.0,6.0,33,7.71,,---,0.00,VWS V14.00,2013-05-24 05:17:00,
2013-05-24 01:18:00,71.8,41.2,29.71,SW,225,3.1,6.0,33,7.71,,---,0.00,VWS V14.00,2013-05-24 05:18:00,
2013-05-24 01:20:00,71.8,41.2,29.71,West,270,2.9,5.6,33,7.71,,---,0.00,VWS V14.00,2013-05-24 05:20:00,
2013-05-24 01:21:00,71.8,41.2,29.71,SW,225,6.3,6.3,33,7.71,,---,0.00,VWS V14.00,2013-05-24 05:21:00,
2013-05-24 01:25:00,71.6,41.0,29.71,West,270,4.3,4.9,33,7.71,,---,0.00,VWS V14.00,2013-05-24 05:25:00,
2013-05-24 01:26:00,71.6,40.2,29.71,WSW,248,3.1,7.4,32,7.71,,---,0.00,VWS V14.00,2013-05-24 05:26:00,
2013-05-24 01:27:00,71.6,40.2,29.71,WSW,248,2.0,3.1,32,7.71,,---,0.00,VWS V14.00,2013-05-24 05:27:00,
2013-05-24 01:28:00,71.6,40.2,29.71,WSW,248,3.4,3.8,32,7.71,,---,0.00,VWS V14.00,2013-05-24 05:28:00,
2013-05-24 01:31:00,71.6,40.2,29.71,West,270,2.0,4.0,32,7.71,,---,0.00,VWS V14.00,2013-05-24 05:31:00,
2013-05-24 01:33:00,71.6,40.2,29.71,WSW,248,1.6,4.0,32,7.71,,---,0.00,VWS V14.00,2013-05-24 05:33:00,
2013-05-24 01:38:00,71.6,40.2,29.71,WNW,292,3.8,4.0,32,7.71,,---,0.00,VWS V14.00,2013-05-24 05:38:00,
2013-05-24 01:39:00,71.6,40.2,29.71,West,270,3.6,3.8,32,7.71,,---,0.00,VWS V14.00,2013-05-24 05:39:00,
2013-05-24 01:40:00,71.6,40.2,29.71,WSW,248,3.1,4.0,32,7.71,,---,0.00,VWS V14.00,2013-05-24 05:40:00,
2013-05-24 01:41:00,71.6,40.2,29.71,WSW,248,2.2,3.1,32,7.71,,---,0.00,VWS V14.00,2013-05-24 05:41:00,
2013-05-24 01:43:00,71.6,40.2,29.71,WSW,248,3.8,4.9,32,7.71,,---,0.00,VWS V14.00,2013-05-24 05:43:00,
2013-05-24 01:47:00,71.6,40.2,29.71,West,270,2.0,2.2,32,7.71,,---,0.00,VWS V14.00,2013-05-24 05:47:00,
2013-05-24 01:49:00,71.6,40.2,29.71,WSW,248,2.7,4.0,32,7.71,,---,0.00,VWS V14.00,2013-05-24 05:49:00,
2013-05-24 01:51:00,71.6,40.2,29.71,West,270,4.0,5.4,32,7.71,,---,0.00,VWS V14.00,2013-05-24 05:51:00,
2013-05-24 01:53:00,71.6,40.2,29.71,West,270,2.7,3.4,32,7.71,,---,0.00,VWS V14.00,2013-05-24 05:53:00,
2013-05-24 01:57:00,71.6,40.2,29.71,West,270,2.9,2.9,32,7.71,,---,0.00,VWS V14.00,2013-05-24 05:57:00,
2013-05-24 01:58:00,71.6,40.2,29.71,West,270,2.5,2.9,32,7.71,,---,0.00,VWS V14.00,2013-05-24 05:58:00,
2013-05-24 01:59:00,71.6,40.2,29.71,WSW,248,2.7,4.0,32,7.71,,---,0.00,VWS V14.00,2013-05-24 05:59:00,
2013-05-24 02:00:00,71.6,40.2,29.71,WSW,248,3.4,3.8,32,7.71,,---,0.00,VWS V14.00,2013-05-24 06:00:00,
2013-05-24 02:03:00,71.6,40.2,29.71,West,270,0.0,2.5,32,7.71,,---,0.00,VWS V14.00,2013-05-24 06:03:00,
2013-05-24 02:04:00,71.6,40.2,29.68,WSW,248,3.4,3.6,32,7.71,,---,0.00,VWS V14.00,2013-05-24 06:04:00,
2013-05-24 02:08:00,71.6,40.2,29.68,WSW,248,2.2,4.3,32,7.71,,---,0.00,VWS V14.00,2013-05-24 06:08:00,
2013-05-24 02:09:00,71.6,40.2,29.68,West,270,3.8,3.8,32,7.71,,---,0.00,VWS V14.00,2013-05-24 06:09:00,
2013-05-24 02:12:00,71.6,40.2,29.68,West,270,1.6,2.7,32,7.71,,---,0.00,VWS V14.00,2013-05-24 06:12:00,
2013-05-24 02:13:00,71.6,40.2,29.68,West,270,3.1,3.6,32,7.71,,---,0.00,VWS V14.00,2013-05-24 06:13:00,
2013-05-24 02:15:00,71.6,40.2,29.68,West,270,4.7,9.6,32,7.71,,---,0.00,VWS V14.00,2013-05-24 06:15:00,
2013-05-24 02:17:00,71.6,40.2,29.68,SSW,202,3.1,6.5,32,7.71,,---,0.00,VWS V14.00,2013-05-24 06:17:00,
2013-05-24 02:18:00,71.6,40.2,29.68,WNW,292,3.4,3.6,32,7.71,,---,0.00,VWS V14.00,2013-05-24 06:18:00,
2013-05-24 02:21:00,71.6,40.2,29.65,WNW,292,2.5,2.5,32,7.71,,---,0.00,VWS V14.00,2013-05-24 06:21:00,
2013-05-24 02:22:00,71.6,40.2,29.65,West,270,3.8,3.8,32,7.71,,---,0.00,VWS V14.00,2013-05-24 06:22:00,
2013-05-24 02:26:00,71.4,40.8,29.65,WSW,248,3.4,3.8,33,7.71,,---,0.00,VWS V14.00,2013-05-24 06:26:00,
2013-05-24 02:28:00,71.4,40.8,29.65,WSW,248,4.0,4.0,33,7.71,,---,0.00,VWS V14.00,2013-05-24 06:28:00,
2013-05-24 02:29:00,71.4,40.8,29.65,West,270,3.4,4.3,33,7.71,,---,0.00,VWS V14.00,2013-05-24 06:29:00,
2013-05-24 02:30:00,71.4,40.8,29.65,West,270,2.5,3.4,33,7.71,,---,0.00,VWS V14.00,2013-05-24 06:30:00,
2013-05-24 02:31:00,71.4,40.8,29.65,WNW,292,4.7,4.7,33,7.71,,---,0.00,VWS V14.00,2013-05-24 06:31:00,
2013-05-24 02:33:00,71.4,40.8,29.65,WNW,292,2.7,4.0,33,7.71,,---,0.00,VWS V14.00,2013-05-24 06:33:00,
2013-05-24 02:34:00,71.4,40.8,29.68,WNW,292,2.0,2.7,33,7.71,,---,0.00,VWS V14.00,2013-05-24 06:34:00,
2013-05-24 02:36:00,71.4,40.8,29.68,WSW,248,0.0,2.2,33,7.71,,---,0.00,VWS V14.00,2013-05-24 06:36:00,
2013-05-24 02:38:00,71.4,40.8,29.68,WSW,248,0.0,0.0,33,7.71,,---,0.00,VWS V14.00,2013-05-24 06:38:00,
2013-05-24 02:39:00,71.4,40.8,29.68,WSW,248,0.0,0.0,33,7.71,,---,0.00,VWS V14.00,2013-05-24 06:39:00,
2013-05-24 02:41:00,71.4,40.8,29.68,SSW,202,3.8,3.8,33,7.71,,---,0.00,VWS V14.00,2013-05-24 06:41:00,
2013-05-24 02:42:00,71.2,40.7,29.68,SSW,202,2.0,3.8,33,7.71,,---,0.00,VWS V14.00,2013-05-24 06:42:00,
2013-05-24 02:44:00,71.2,40.7,29.68,SW,225,0.0,0.0,33,7.71,,---,0.00,VWS V14.00,2013-05-24 06:44:00,
2013-05-24 02:47:00,71.2,40.7,29.68,SW,225,0.0,0.0,33,7.71,,---,0.00,VWS V14.00,2013-05-24 06:47:00,
2013-05-24 02:48:00,71.2,40.7,29.68,SW,225,0.0,0.0,33,7.71,,---,0.00,VWS V14.00,2013-05-24 06:48:00,
2013-05-24 02:49:00,71.2,40.7,29.68,WSW,248,0.0,0.0,33,7.71,,---,0.00,VWS V14.00,2013-05-24 06:49:00,
2013-05-24 02:51:00,71.2,40.7,29.68,WSW,248,0.0,0.9,33,7.71,,---,0.00,VWS V14.00,2013-05-24 06:51:00,
2013-05-24 02:53:00,71.2,40.7,29.68,WSW,248,0.0,0.0,33,7.71,,---,0.00,VWS V14.00,2013-05-24 06:53:00,
2013-05-24 02:55:00,71.2,40.7,29.68,WSW,248,0.0,0.0,33,7.71,,---,0.00,VWS V14.00,2013-05-24 06:55:00,
2013-05-24 02:56:00,71.2,40.7,29.68,WSW,248,0.0,0.0,33,7.71,,---,0.00,VWS V14.00,2013-05-24 06:56:00,
2013-05-24 02:58:00,71.2,40.7,29.68,WSW,248,0.0,0.0,33,7.71,,---,0.00,VWS V14.00,2013-05-24 06:58:00,
2013-05-24 02:59:00,71.2,40.7,29.68,SW,225,0.0,1.6,33,7.71,,---,0.00,VWS V14.00,2013-05-24 06:59:00,
2013-05-24 03:02:00,71.2,40.7,29.68,SW,225,0.0,0.0,33,7.71,,---,0.00,VWS V14.00,2013-05-24 07:02:00,
2013-05-24 03:04:00,71.2,40.7,29.68,SSW,202,2.7,3.4,33,7.71,,---,0.00,VWS V14.00,2013-05-24 07:04:00,
2013-05-24 03:05:00,71.2,40.7,29.68,WSW,248,1.6,2.7,33,7.71,,---,0.00,VWS V14.00,2013-05-24 07:05:00,
2013-05-24 03:08:00,71.2,40.7,29.68,West,270,2.5,2.5,33,7.71,,---,0.00,VWS V14.00,2013-05-24 07:08:00,
2013-05-24 03:09:00,71.4,40.8,29.68,WSW,248,1.3,2.5,33,7.71,,---,0.00,VWS V14.00,2013-05-24 07:09:00,
2013-05-24 03:10:00,71.4,40.8,29.68,WSW,248,2.5,3.4,33,7.71,,---,0.00,VWS V14.00,2013-05-24 07:10:00,
2013-05-24 03:11:00,71.4,40.8,29.68,West,270,2.0,3.8,33,7.71,,---,0.00,VWS V14.00,2013-05-24 07:11:00,
2013-05-24 03:13:00,71.4,40.8,29.68,WSW,248,3.1,3.1,33,7.71,,---,0.00,VWS V14.00,2013-05-24 07:13:00,
2013-05-24 03:14:00,71.4,40.8,29.68,West,270,1.6,3.8,33,7.71,,---,0.00,VWS V14.00,2013-05-24 07:14:00,
2013-05-24 03:15:00,71.4,40.8,29.68,West,270,0.0,1.6,33,7.71,,---,0.00,VWS V14.00,2013-05-24 07:15:00,
2013-05-24 03:16:00,71.4,40.8,29.68,WSW,248,3.1,3.1,33,7.71,,---,0.00,VWS V14.00,2013-05-24 07:16:00,
2013-05-24 03:20:00,71.4,40.8,29.68,West,270,2.0,2.5,33,7.71,,---,0.00,VWS V14.00,2013-05-24 07:20:00,
2013-05-24 03:21:00,71.4,40.8,29.68,WSW,248,2.9,3.4,33,7.71,,---,0.00,VWS V14.00,2013-05-24 07:21:00,
2013-05-24 03:23:00,71.6,41.0,29.68,West,270,3.6,3.6,33,7.71,,---,0.00,VWS V14.00,2013-05-24 07:23:00,
2013-05-24 03:25:00,71.6,41.0,29.68,WSW,248,3.8,3.8,33,7.71,,---,0.00,VWS V14.00,2013-05-24 07:25:00,
2013-05-24 03:26:00,71.4,41.6,29.68,WSW,248,2.7,4.3,34,7.71,,---,0.00,VWS V14.00,2013-05-24 07:26:00,
2013-05-24 03:28:00,71.6,41.0,29.68,West,270,4.0,4.0,33,7.71,,---,0.00,VWS V14.00,2013-05-24 07:28:00,
2013-05-24 03:30:00,71.4,41.6,29.68,WNW,292,2.2,3.6,34,7.71,,---,0.00,VWS V14.00,2013-05-24 07:30:00,
2013-05-24 03:32:00,71.6,41.0,29.68,West,270,2.0,2.9,33,7.71,,---,0.00,VWS V14.00,2013-05-24 07:32:00,
2013-05-24 03:34:00,71.4,40.8,29.68,West,270,2.7,2.7,33,7.71,,---,0.00,VWS V14.00,2013-05-24 07:34:00,
2013-05-24 03:35:00,71.6,41.0,29.68,WSW,248,1.1,2.7,33,7.71,,---,0.00,VWS V14.00,2013-05-24 07:35:00,
2013-05-24 03:36:00,71.4,40.8,29.68,West,270,0.0,3.1,33,7.71,,---,0.00,VWS V14.00,2013-05-24 07:36:00,
2013-05-24 03:38:00,71.6,41.0,29.68,West,270,2.5,2.5,33,7.71,,---,0.00,VWS V14.00,2013-05-24 07:38:00,
2013-05-24 03:41:00,71.4,40.8,29.68,SW,225,1.1,3.4,33,7.71,,---,0.00,VWS V14.00,2013-05-24 07:41:00,
2013-05-24 03:42:00,71.4,40.8,29.68,WSW,248,1.6,2.5,33,7.71,,---,0.00,VWS V14.00,2013-05-24 07:42:00,
2013-05-24 03:43:00,71.4,40.8,29.68,WSW,248,0.0,1.6,33,7.71,,---,0.00,VWS V14.00,2013-05-24 07:43:00,
2013-05-24 03:45:00,71.4,40.8,29.68,WSW,248,0.0,0.0,33,7.71,,---,0.00,VWS V14.00,2013-05-24 07:45:00,
2013-05-24 03:47:00,71.4,40.8,29.68,WSW,248,2.5,2.7,33,7.71,,---,0.00,VWS V14.00,2013-05-24 07:47:00,
2013-05-24 03:49:00,71.4,40.8,29.68,WSW,248,1.1,2.9,33,7.71,,---,0.00,VWS V14.00,2013-05-24 07:49:00,
2013-05-24 03:50:00,71.4,40.8,29.68,WSW,248,0.0,2.2,33,7.71,,---,0.00,VWS V14.00,2013-05-24 07:50:00,
2013-05-24 03:51:00,71.4,40.8,29.68,SSW,202,0.9,1.6,33,7.71,,---,0.00,VWS V14.00,2013-05-24 07:51:00,
2013-05-24 03:53:00,71.4,40.8,29.68,SSW,202,0.0,0.0,33,7.71,,---,0.00,VWS V14.00,2013-05-24 07:53:00,
2013-05-24 03:54:00,71.4,40.8,29.68,SSW,202,0.0,0.0,33,7.71,,---,0.00,VWS V14.00,2013-05-24 07:54:00,
2013-05-24 03:57:00,71.4,41.6,29.68,SSW,202,0.0,0.0,34,7.71,,---,0.00,VWS V14.00,2013-05-24 07:57:00,
2013-05-24 03:59:00,71.4,41.6,29.68,SSW,202,0.0,0.0,34,7.71,,---,0.00,VWS V14.00,2013-05-24 07:59:00,
2013-05-24 04:01:00,71.2,41.5,29.68,SSW,202,0.0,0.0,34,7.71,,---,0.00,VWS V14.00,2013-05-24 08:01:00,
2013-05-24 04:04:00,71.2,40.7,29.65,SSW,202,0.0,0.0,33,7.71,,---,0.00,VWS V14.00,2013-05-24 08:04:00,
2013-05-24 04:06:00,71.2,40.7,29.65,SSW,202,0.0,0.0,33,7.71,,---,0.00,VWS V14.00,2013-05-24 08:06:00,
2013-05-24 04:07:00,71.1,40.5,29.65,SSW,202,0.0,0.0,33,7.71,,---,0.00,VWS V14.00,2013-05-24 08:07:00,
2013-05-24 04:09:00,71.1,40.5,29.65,SSE,158,0.0,0.0,33,7.71,,---,0.00,VWS V14.00,2013-05-24 08:09:00,
2013-05-24 04:10:00,71.1,40.5,29.65,SSE,158,0.0,0.0,33,7.71,,---,0.00,VWS V14.00,2013-05-24 08:10:00,
2013-05-24 04:11:00,71.1,40.5,29.65,SSE,158,0.0,0.0,33,7.71,,---,0.00,VWS V14.00,2013-05-24 08:11:00,
2013-05-24 04:12:00,71.1,40.5,29.65,SSE,158,0.0,0.0,33,7.71,,---,0.00,VWS V14.00,2013-05-24 08:12:00,
2013-05-24 04:13:00,71.1,40.5,29.65,SSE,158,0.0,0.0,33,7.71,,---,0.00,VWS V14.00,2013-05-24 08:13:00,
2013-05-24 04:16:00,71.2,40.7,29.65,South,180,0.0,0.0,33,7.71,,---,0.00,VWS V14.00,2013-05-24 08:16:00,
2013-05-24 04:17:00,71.2,40.7,29.65,SSW,202,0.0,0.0,33,7.71,,---,0.00,VWS V14.00,2013-05-24 08:17:00,
2013-05-24 04:19:00,71.2,41.5,29.68,West,270,2.5,2.7,34,7.71,,---,0.00,VWS V14.00,2013-05-24 08:19:00,
2013-05-24 04:21:00,71.2,41.5,29.68,West,270,3.4,3.4,34,7.71,,---,0.00,VWS V14.00,2013-05-24 08:21:00,
2013-05-24 04:22:00,71.2,41.5,29.68,West,270,2.5,3.6,34,7.71,,---,0.00,VWS V14.00,2013-05-24 08:22:00,
2013-05-24 04:26:00,71.4,41.6,29.68,West,270,3.4,3.4,34,7.71,,---,0.00,VWS V14.00,2013-05-24 08:26:00,
2013-05-24 04:27:00,71.4,41.6,29.68,West,270,2.5,3.4,34,7.71,,---,0.00,VWS V14.00,2013-05-24 08:27:00,
2013-05-24 04:29:00,71.4,41.6,29.68,West,270,1.6,3.4,34,7.71,,---,0.00,VWS V14.00,2013-05-24 08:29:00,
2013-05-24 04:31:00,71.4,41.6,29.68,West,270,3.4,3.6,34,7.71,,---,0.00,VWS V14.00,2013-05-24 08:31:00,
2013-05-24 04:32:00,71.4,41.6,29.68,West,270,1.3,3.6,34,7.71,,---,0.00,VWS V14.00,2013-05-24 08:32:00,
2013-05-24 04:33:00,71.4,41.6,29.68,West,270,1.3,2.2,34,7.71,,---,0.00,VWS V14.00,2013-05-24 08:33:00,
2013-05-24 04:35:00,71.4,41.6,29.68,West,270,2.2,4.0,34,7.71,,---,0.00,VWS V14.00,2013-05-24 08:35:00,
2013-05-24 04:37:00,71.4,41.6,29.68,West,270,2.5,2.7,34,7.71,,---,0.00,VWS V14.00,2013-05-24 08:37:00,
2013-05-24 04:39:00,71.4,41.6,29.68,WNW,292,1.6,1.6,34,7.71,,---,0.00,VWS V14.00,2013-05-24 08:39:00,
2013-05-24 04:41:00,71.4,41.6,29.68,West,270,1.3,2.9,34,7.71,,---,0.00,VWS V14.00,2013-05-24 08:41:00,
2013-05-24 04:44:00,71.4,41.6,29.68,WNW,292,1.3,2.7,34,7.71,,---,0.00,VWS V14.00,2013-05-24 08:44:00,
2013-05-24 04:48:00,71.2,41.5,29.68,NW,315,1.1,2.7,34,7.71,,---,0.00,VWS V14.00,2013-05-24 08:48:00,
2013-05-24 04:50:00,71.4,41.6,29.68,WNW,292,0.0,3.1,34,7.71,,---,0.00,VWS V14.00,2013-05-24 08:50:00,
2013-05-24 04:51:00,71.4,41.6,29.68,WNW,292,0.0,0.0,34,7.71,,---,0.00,VWS V14.00,2013-05-24 08:51:00,
2013-05-24 04:52:00,71.4,41.6,29.68,NW,315,2.0,2.5,34,7.71,,---,0.00,VWS V14.00,2013-05-24 08:52:00,
2013-05-24 04:54:00,71.2,41.5,29.68,West,270,0.0,0.0,34,7.71,,---,0.00,VWS V14.00,2013-05-24 08:54:00,
2013-05-24 04:56:00,71.4,41.6,29.68,West,270,1.3,3.4,34,7.71,,---,0.00,VWS V14.00,2013-05-24 08:56:00,
2013-05-24 04:59:00,71.4,41.6,29.68,West,270,0.0,3.1,34,7.71,,---,0.00,VWS V14.00,2013-05-24 08:59:00,
2013-05-24 05:00:00,71.4,41.6,29.68,West,270,0.0,0.0,34,7.71,,---,0.00,VWS V14.00,2013-05-24 09:00:00,
2013-05-24 05:04:00,71.4,41.6,29.68,West,270,0.0,1.1,34,7.71,,---,0.00,VWS V14.00,2013-05-24 09:04:00,
2013-05-24 05:06:00,71.4,41.6,29.68,West,270,0.0,0.0,34,7.71,,---,0.00,VWS V14.00,2013-05-24 09:06:00,
2013-05-24 05:09:00,71.4,41.6,29.68,WSW,248,2.0,3.1,34,7.71,,---,0.00,VWS V14.00,2013-05-24 09:09:00,
2013-05-24 05:11:00,71.4,41.6,29.68,WSW,248,0.0,2.2,34,7.71,,---,0.00,VWS V14.00,2013-05-24 09:11:00,
2013-05-24 05:14:00,71.4,41.6,29.68,WSW,248,0.0,1.6,34,7.71,,---,0.00,VWS V14.00,2013-05-24 09:14:00,
2013-05-24 05:15:00,71.4,41.6,29.68,WSW,248,2.2,2.7,34,7.71,,---,0.00,VWS V14.00,2013-05-24 09:15:00,
2013-05-24 05:16:00,71.4,41.6,29.68,WSW,248,1.1,2.2,34,7.71,,---,0.00,VWS V14.00,2013-05-24 09:16:00,
2013-05-24 05:18:00,71.4,41.6,29.68,WSW,248,0.0,0.0,34,7.71,,---,0.00,VWS V14.00,2013-05-24 09:18:00,
2013-05-24 05:20:00,71.4,41.6,29.65,WSW,248,0.0,0.0,34,7.71,,---,0.00,VWS V14.00,2013-05-24 09:20:00,
2013-05-24 05:24:00,71.2,41.5,29.65,WSW,248,0.0,0.0,34,7.71,,---,0.00,VWS V14.00,2013-05-24 09:24:00,
2013-05-24 05:25:00,71.2,41.5,29.65,WSW,248,0.0,0.0,34,7.71,,---,0.00,VWS V14.00,2013-05-24 09:25:00,
2013-05-24 05:27:00,71.2,41.5,29.65,WSW,248,0.0,0.0,34,7.71,,---,0.00,VWS V14.00,2013-05-24 09:27:00,
2013-05-24 05:28:00,71.2,41.5,29.65,WSW,248,0.0,0.0,34,7.71,,---,0.00,VWS V14.00,2013-05-24 09:28:00,
2013-05-24 05:29:00,71.2,41.5,29.65,WSW,248,0.0,0.0,34,7.71,,---,0.00,VWS V14.00,2013-05-24 09:29:00,
2013-05-24 05:32:00,71.2,41.5,29.65,WSW,248,0.0,0.0,34,7.71,,---,0.00,VWS V14.00,2013-05-24 09:32:00,
2013-05-24 05:33:00,71.2,41.5,29.65,WSW,248,0.0,0.0,34,7.71,,---,0.00,VWS V14.00,2013-05-24 09:33:00,
2013-05-24 05:35:00,71.2,41.5,29.68,WSW,248,0.0,0.0,34,7.71,,---,0.00,VWS V14.00,2013-05-24 09:35:00,
2013-05-24 05:39:00,71.2,41.5,29.68,WSW,248,0.0,0.0,34,7.71,,---,0.00,VWS V14.00,2013-05-24 09:39:00,
2013-05-24 05:40:00,71.2,41.5,29.68,WSW,248,0.0,0.0,34,7.71,,---,0.00,VWS V14.00,2013-05-24 09:40:00,
2013-05-24 05:42:00,71.1,41.3,29.68,WSW,248,0.0,0.0,34,7.71,,---,0.00,VWS V14.00,2013-05-24 09:42:00,
2013-05-24 05:44:00,71.1,41.3,29.68,WSW,248,0.0,0.0,34,7.71,,---,0.00,VWS V14.00,2013-05-24 09:44:00,
2013-05-24 05:45:00,71.1,41.3,29.68,WSW,248,0.0,0.0,34,7.71,,---,0.00,VWS V14.00,2013-05-24 09:45:00,
2013-05-24 05:46:00,71.1,41.3,29.68,WSW,248,0.0,0.0,34,7.71,,---,0.00,VWS V14.00,2013-05-24 09:46:00,
2013-05-24 05:49:00,71.1,41.3,29.68,West,270,0.0,0.0,34,7.71,,---,0.00,VWS V14.00,2013-05-24 09:49:00,
2013-05-24 05:50:00,71.1,41.3,29.68,West,270,0.0,0.0,34,7.71,,---,0.00,VWS V14.00,2013-05-24 09:50:00,
2013-05-24 05:51:00,71.1,41.3,29.68,West,270,0.0,0.0,34,7.71,,---,0.00,VWS V14.00,2013-05-24 09:51:00,
2013-05-24 05:52:00,71.1,41.3,29.68,West,270,0.0,0.0,34,7.71,,---,0.00,VWS V14.00,2013-05-24 09:52:00,
2013-05-24 05:54:00,71.1,41.3,29.68,West,270,0.0,0.0,34,7.71,,---,0.00,VWS V14.00,2013-05-24 09:54:00,
2013-05-24 05:55:00,71.2,41.5,29.68,West,270,0.0,0.0,34,7.71,,---,0.00,VWS V14.00,2013-05-24 09:55:00,
2013-05-24 05:56:00,71.1,41.3,29.68,West,270,0.0,0.0,34,7.71,,---,0.00,VWS V14.00,2013-05-24 09:56:00,
2013-05-24 05:57:00,71.1,41.3,29.68,West,270,0.0,0.0,34,7.71,,---,0.00,VWS V14.00,2013-05-24 09:57:00,
2013-05-24 06:01:00,70.9,41.1,29.68,West,270,0.0,0.0,34,7.71,,---,0.00,VWS V14.00,2013-05-24 10:01:00,
2013-05-24 06:03:00,70.9,41.1,29.68,West,270,0.0,0.0,34,7.71,,---,0.00,VWS V14.00,2013-05-24 10:03:00,
2013-05-24 06:04:00,70.9,41.1,29.68,West,270,0.0,0.0,34,7.71,,---,0.00,VWS V14.00,2013-05-24 10:04:00,
2013-05-24 06:06:00,70.9,41.1,29.68,West,270,0.0,0.0,34,7.71,,---,0.00,VWS V14.00,2013-05-24 10:06:00,
2013-05-24 06:10:00,70.9,41.1,29.68,West,270,0.0,0.0,34,7.71,,---,0.00,VWS V14.00,2013-05-24 10:10:00,
2013-05-24 06:11:00,70.9,41.1,29.68,West,270,0.0,0.0,34,7.71,,---,0.00,VWS V14.00,2013-05-24 10:11:00,
2013-05-24 06:12:00,70.9,41.1,29.68,West,270,0.0,0.0,34,7.71,,---,0.00,VWS V14.00,2013-05-24 10:12:00,
2013-05-24 06:14:00,70.9,41.1,29.68,West,270,0.0,0.0,34,7.71,,---,0.00,VWS V14.00,2013-05-24 10:14:00,
2013-05-24 06:15:00,70.9,41.1,29.68,West,270,0.0,0.0,34,7.71,,---,0.00,VWS V14.00,2013-05-24 10:15:00,
2013-05-24 06:16:00,70.9,41.1,29.68,West,270,0.0,0.0,34,7.71,,---,0.00,VWS V14.00,2013-05-24 10:16:00,
2013-05-24 06:18:00,70.9,41.1,29.68,West,270,0.0,0.0,34,7.71,,---,0.00,VWS V14.00,2013-05-24 10:18:00,
2013-05-24 06:21:00,70.9,41.1,29.68,West,270,0.0,0.0,34,7.71,,---,0.00,VWS V14.00,2013-05-24 10:21:00,
2013-05-24 06:23:00,70.9,41.1,29.68,West,270,0.0,0.0,34,7.71,,---,0.00,VWS V14.00,2013-05-24 10:23:00,
2013-05-24 06:24:00,70.9,41.1,29.68,West,270,0.0,0.0,34,7.71,,---,0.00,VWS V14.00,2013-05-24 10:24:00,
2013-05-24 06:25:00,70.9,41.1,29.68,West,270,0.0,0.0,34,7.71,,---,0.00,VWS V14.00,2013-05-24 10:25:00,
2013-05-24 06:26:00,70.9,41.1,29.68,West,270,0.0,0.0,34,7.71,,---,0.00,VWS V14.00,2013-05-24 10:26:00,
2013-05-24 06:29:00,70.9,41.1,29.68,West,270,0.0,0.0,34,7.71,,---,0.00,VWS V14.00,2013-05-24 10:29:00,
2013-05-24 06:30:00,70.9,41.1,29.68,WSW,248,0.0,0.0,34,7.71,,---,0.00,VWS V14.00,2013-05-24 10:30:00,
2013-05-24 06:32:00,71.1,41.3,29.68,WSW,248,0.0,0.0,34,7.71,,---,0.00,VWS V14.00,2013-05-24 10:32:00,
2013-05-24 06:35:00,70.9,41.1,29.71,WSW,248,0.0,0.0,34,7.71,,---,0.00,VWS V14.00,2013-05-24 10:35:00,
2013-05-24 06:36:00,70.9,41.1,29.71,WSW,248,0.0,0.0,34,7.71,,---,0.00,VWS V14.00,2013-05-24 10:36:00,
2013-05-24 06:37:00,70.9,41.1,29.71,West,270,0.0,0.0,34,7.71,,---,0.00,VWS V14.00,2013-05-24 10:37:00,
2013-05-24 06:38:00,70.9,41.1,29.71,West,270,0.0,0.0,34,7.71,,---,0.00,VWS V14.00,2013-05-24 10:38:00,
2013-05-24 06:40:00,70.7,41.0,29.71,West,270,0.0,0.0,34,7.71,,---,0.00,VWS V14.00,2013-05-24 10:40:00,
2013-05-24 06:44:00,70.7,41.0,29.71,West,270,2.2,2.9,34,7.71,,---,0.00,VWS V14.00,2013-05-24 10:44:00,
2013-05-24 06:46:00,70.7,41.0,29.71,West,270,0.0,0.0,34,7.71,,---,0.00,VWS V14.00,2013-05-24 10:46:00,
2013-05-24 06:48:00,70.7,41.0,29.71,West,270,0.0,0.0,34,7.71,,---,0.00,VWS V14.00,2013-05-24 10:48:00,
2013-05-24 06:49:00,70.7,41.0,29.71,West,270,0.0,0.0,34,7.71,,---,0.00,VWS V14.00,2013-05-24 10:49:00,
2013-05-24 06:53:00,70.9,41.1,29.71,West,270,0.0,0.0,34,7.71,,---,0.00,VWS V14.00,2013-05-24 10:53:00,
2013-05-24 06:54:00,70.9,41.1,29.71,West,270,0.0,0.0,34,7.71,,---,0.00,VWS V14.00,2013-05-24 10:54:00,
2013-05-24 06:55:00,70.9,41.1,29.71,West,270,0.0,0.0,34,7.71,,---,0.00,VWS V14.00,2013-05-24 10:55:00,
2013-05-24 06:56:00,70.9,41.1,29.71,West,270,0.0,0.0,34,7.71,,---,0.00,VWS V14.00,2013-05-24 10:56:00,
2013-05-24 06:58:00,71.1,42.0,29.71,West,270,0.0,0.0,35,7.71,,---,0.00,VWS V14.00,2013-05-24 10:58:00,
2013-05-24 07:00:00,71.1,42.0,29.71,West,270,0.0,0.0,35,7.71,,---,0.00,VWS V14.00,2013-05-24 11:00:00,
2013-05-24 07:01:00,71.1,41.3,29.71,West,270,0.0,0.0,34,7.71,,---,0.00,VWS V14.00,2013-05-24 11:01:00,
2013-05-24 07:03:00,71.1,41.3,29.71,West,270,0.0,0.0,34,7.71,,---,0.00,VWS V14.00,2013-05-24 11:03:00,
2013-05-24 07:04:00,71.1,41.3,29.71,West,270,0.0,1.3,34,7.71,,---,0.00,VWS V14.00,2013-05-24 11:04:00,
2013-05-24 07:05:00,71.1,42.0,29.71,West,270,1.6,1.6,35,7.71,,---,0.00,VWS V14.00,2013-05-24 11:05:00,
2013-05-24 07:09:00,71.1,41.3,29.71,West,270,0.0,0.0,34,7.71,,---,0.00,VWS V14.00,2013-05-24 11:09:00,
2013-05-24 07:10:00,71.1,41.3,29.71,West,270,0.0,0.0,34,7.71,,---,0.00,VWS V14.00,2013-05-24 11:10:00,
2013-05-24 07:12:00,71.2,42.2,29.71,West,270,0.0,0.0,35,7.71,,---,0.00,VWS V14.00,2013-05-24 11:12:00,
2013-05-24 07:17:00,71.2,41.5,29.71,WSW,248,0.0,0.9,34,7.71,,---,0.00,VWS V14.00,2013-05-24 11:17:00,
2013-05-24 07:19:00,71.4,41.6,29.71,WSW,248,0.0,0.0,34,7.71,,---,0.00,VWS V14.00,2013-05-24 11:19:00,
2013-05-24 07:20:00,71.4,41.6,29.71,WSW,248,0.0,0.0,34,7.71,,---,0.00,VWS V14.00,2013-05-24 11:20:00,
2013-05-24 07:21:00,71.4,41.6,29.71,West,270,2.5,2.5,34,7.71,,---,0.00,VWS V14.00,2013-05-24 11:21:00,
2013-05-24 07:22:00,71.4,41.6,29.71,West,270,2.0,2.5,34,7.71,,---,0.00,VWS V14.00,2013-05-24 11:22:00,
2013-05-24 07:24:00,71.2,41.5,29.71,West,270,0.0,3.4,34,7.71,,---,0.00,VWS V14.00,2013-05-24 11:24:00,
2013-05-24 07:26:00,71.2,41.5,29.71,West,270,2.7,3.1,34,7.71,,---,0.00,VWS V14.00,2013-05-24 11:26:00,
2013-05-24 07:28:00,71.4,41.6,29.71,West,270,1.6,1.6,34,7.71,,---,0.00,VWS V14.00,2013-05-24 11:28:00,
2013-05-24 07:30:00,71.4,41.6,29.71,West,270,0.0,1.1,34,7.71,,---,0.00,VWS V14.00,2013-05-24 11:30:00,
2013-05-24 07:32:00,71.4,41.6,29.71,West,270,1.3,2.9,34,7.71,,---,0.00,VWS V14.00,2013-05-24 11:32:00,
2013-05-24 07:33:00,71.4,41.6,29.71,West,270,2.5,2.5,34,7.71,,---,0.00,VWS V14.00,2013-05-24 11:33:00,
2013-05-24 07:35:00,71.4,41.6,29.71,WSW,248,5.4,5.4,34,7.71,,---,0.00,VWS V14.00,2013-05-24 11:35:00,
2013-05-24 07:36:00,71.4,41.6,29.71,WSW,248,3.1,5.4,34,7.71,,---,0.00,VWS V14.00,2013-05-24 11:36:00,
2013-05-24 07:39:00,71.4,41.6,29.71,West,270,0.9,2.5,34,7.71,,---,0.00,VWS V14.00,2013-05-24 11:39:00,
2013-05-24 07:42:00,71.6,41.8,29.71,West,270,1.3,2.2,34,7.71,,---,0.00,VWS V14.00,2013-05-24 11:42:00,
2013-05-24 07:43:00,71.6,41.8,29.71,WNW,292,1.6,2.7,34,7.71,,---,0.00,VWS V14.00,2013-05-24 11:43:00,
2013-05-24 07:44:00,71.4,41.6,29.71,West,270,2.0,4.9,34,7.71,,---,0.00,VWS V14.00,2013-05-24 11:44:00,
2013-05-24 07:45:00,71.4,41.6,29.71,West,270,2.7,2.7,34,7.71,,---,0.00,VWS V14.00,2013-05-24 11:45:00,
2013-05-24 07:48:00,71.6,41.8,29.71,West,270,4.3,4.3,34,7.71,,---,0.00,VWS V14.00,2013-05-24 11:48:00,
2013-05-24 07:49:00,71.6,41.8,29.71,WNW,292,1.6,4.3,34,7.71,,---,0.00,VWS V14.00,2013-05-24 11:49:00,
2013-05-24 07:50:00,71.6,41.8,29.71,West,270,5.8,5.8,34,7.71,,---,0.00,VWS V14.00,2013-05-24 11:50:00,
2013-05-24 07:51:00,71.6,41.8,29.71,West,270,3.1,5.8,34,7.71,,---,0.00,VWS V14.00,2013-05-24 11:51:00,
2013-05-24 07:53:00,71.6,41.8,29.71,West,270,3.8,3.8,34,7.71,,---,0.00,VWS V14.00,2013-05-24 11:53:00,
2013-05-24 07:54:00,71.6,41.8,29.71,WNW,292,1.6,3.8,34,7.71,,---,0.00,VWS V14.00,2013-05-24 11:54:00,
2013-05-24 07:56:00,71.8,41.9,29.71,WNW,292,2.9,2.9,34,7.71,,---,0.00,VWS V14.00,2013-05-24 11:56:00,
2013-05-24 07:58:00,72.0,42.1,29.71,West,270,3.1,3.1,34,7.71,,---,0.00,VWS V14.00,2013-05-24 11:58:00,
2013-05-24 07:59:00,72.0,42.1,29.71,WSW,248,0.0,3.1,34,7.71,,---,0.00,VWS V14.00,2013-05-24 11:59:00,
2013-05-24 08:00:00,72.0,42.1,29.71,West,270,0.0,0.0,34,7.71,,---,0.00,VWS V14.00,2013-05-24 12:00:00,
2013-05-24 08:02:00,72.3,43.2,29.71,West,270,0.0,0.0,35,7.71,,---,0.00,VWS V14.00,2013-05-24 12:02:00,
2013-05-24 08:03:00,72.3,43.2,29.71,West,270,0.0,0.0,35,7.71,,---,0.00,VWS V14.00,2013-05-24 12:03:00,
2013-05-24 08:05:00,72.3,42.4,29.71,West,270,2.0,4.0,34,7.71,,---,0.00,VWS V14.00,2013-05-24 12:05:00,
2013-05-24 08:07:00,72.3,42.4,29.71,WSW,248,0.0,2.0,34,7.71,,---,0.00,VWS V14.00,2013-05-24 12:07:00,
2013-05-24 08:08:00,72.3,42.4,29.71,West,270,1.6,2.0,34,7.71,,---,0.00,VWS V14.00,2013-05-24 12:08:00,
2013-05-24 08:11:00,72.3,42.4,29.71,West,270,2.2,2.9,34,7.71,,---,0.00,VWS V14.00,2013-05-24 12:11:00,
2013-05-24 08:13:00,72.3,41.6,29.71,WNW,292,3.8,3.8,33,7.71,,---,0.00,VWS V14.00,2013-05-24 12:13:00,
2013-05-24 08:14:00,72.3,41.6,29.71,WSW,248,4.3,4.3,33,7.71,,---,0.00,VWS V14.00,2013-05-24 12:14:00,
2013-05-24 08:16:00,72.3,41.6,29.71,WSW,248,0.0,2.9,33,7.71,,---,0.00,VWS V14.00,2013-05-24 12:16:00,
2013-05-24 08:18:00,72.3,41.6,29.71,WNW,292,3.4,3.4,33,7.71,,---,0.00,VWS V14.00,2013-05-24 12:18:00,
2013-05-24 08:21:00,72.3,41.6,29.74,WNW,292,4.3,4.7,33,7.71,,---,0.00,VWS V14.00,2013-05-24 12:21:00,
2013-05-24 08:22:00,72.3,41.6,29.74,West,270,3.4,4.3,33,7.71,,---,0.00,VWS V14.00,2013-05-24 12:22:00,
2013-05-24 08:23:00,72.3,41.6,29.74,WNW,292,4.3,4.3,33,7.71,,---,0.00,VWS V14.00,2013-05-24 12:23:00,
2013-05-24 08:27:00,72.3,41.6,29.74,West,270,2.9,2.9,33,7.71,,---,0.00,VWS V14.00,2013-05-24 12:27:00,
2013-05-24 08:29:00,72.5,41.8,29.74,West,270,1.3,3.6,33,7.71,,---,0.00,VWS V14.00,2013-05-24 12:29:00,
2013-05-24 08:31:00,72.7,42.0,29.74,WSW,248,2.7,4.0,33,7.71,,---,0.00,VWS V14.00,2013-05-24 12:31:00,
2013-05-24 08:32:00,72.7,42.0,29.74,West,270,0.9,2.7,33,7.71,,---,0.00,VWS V14.00,2013-05-24 12:32:00,
2013-05-24 08:36:00,72.9,42.1,29.71,WNW,292,3.6,3.6,33,7.71,,---,0.00,VWS V14.00,2013-05-24 12:36:00,
2013-05-24 08:38:00,73.0,42.3,29.71,West,270,2.9,4.0,33,7.71,,---,0.00,VWS V14.00,2013-05-24 12:38:00,
2013-05-24 08:39:00,72.9,42.1,29.71,West,270,2.9,4.0,33,7.71,,---,0.00,VWS V14.00,2013-05-24 12:39:00,
2013-05-24 08:42:00,73.4,42.6,29.71,West,270,4.3,4.3,33,7.71,,---,0.00,VWS V14.00,2013-05-24 12:42:00,
2013-05-24 08:44:00,73.6,41.9,29.71,West,270,3.6,4.9,32,7.71,,---,0.00,VWS V14.00,2013-05-24 12:44:00,
2013-05-24 08:46:00,73.4,41.0,29.71,West,270,5.4,5.4,31,7.71,,---,0.00,VWS V14.00,2013-05-24 12:46:00,
2013-05-24 08:47:00,73.6,41.1,29.71,NW,315,0.0,5.4,31,7.71,,---,0.00,VWS V14.00,2013-05-24 12:47:00,
2013-05-24 08:48:00,73.8,42.1,29.71,WSW,248,3.8,3.8,32,7.71,,---,0.00,VWS V14.00,2013-05-24 12:48:00,
2013-05-24 08:49:00,73.6,41.9,29.71,WNW,292,6.3,6.3,32,7.71,,---,0.00,VWS V14.00,2013-05-24 12:49:00,
2013-05-24 08:51:00,73.4,35.5,29.71,WSW,248,4.0,4.3,25,7.71,,---,0.00,VWS V14.00,2013-05-24 12:51:00,
2013-05-24 08:54:00,73.4,32.3,29.71,West,270,0.0,3.4,22,7.71,,---,0.00,VWS V14.00,2013-05-24 12:54:00,
2013-05-24 08:55:00,73.6,35.6,29.71,WSW,248,2.7,3.1,25,7.71,,---,0.00,VWS V14.00,2013-05-24 12:55:00,
2013-05-24 08:57:00,73.6,-19.9,29.71,WNW,292,2.5,5.4,2,7.71,,---,0.00,VWS V14.00,2013-05-24 12:57:00,
2013-05-24 08:58:00,73.8,37.7,29.71,West,270,2.2,2.5,27,7.71,,---,0.00,VWS V14.00,2013-05-24 12:58:00,
2013-05-24 09:01:00,73.9,34.9,29.71,WNW,292,0.0,2.2,24,7.71,,---,0.00,VWS V14.00,2013-05-24 13:01:00,
2013-05-24 09:03:00,73.8,8.8,29.71,WSW,248,2.7,3.8,8,7.71,,---,0.00,VWS V14.00,2013-05-24 13:03:00,
2013-05-24 09:05:00,73.4,-20.0,29.74,West,270,6.5,6.5,2,7.71,,---,0.00,VWS V14.00,2013-05-24 13:05:00,
2013-05-24 09:09:00,72.3,-12.8,29.74,West,270,1.6,5.8,3,7.71,,---,0.00,VWS V14.00,2013-05-24 13:09:00,
2013-05-24 09:10:00,72.5,-12.7,29.74,WSW,248,4.0,4.0,3,7.71,,---,0.00,VWS V14.00,2013-05-24 13:10:00,
2013-05-24 09:13:00,72.0,-13.1,29.74,West,270,3.4,6.0,3,7.71,,---,0.00,VWS V14.00,2013-05-24 13:13:00,
2013-05-24 09:15:00,72.1,-12.9,29.74,West,270,2.5,3.1,3,7.71,,---,0.00,VWS V14.00,2013-05-24 13:15:00,
2013-05-24 09:16:00,72.1,-12.9,29.74,NW,315,3.4,3.8,3,7.71,,---,0.00,VWS V14.00,2013-05-24 13:16:00,
2013-05-24 09:18:00,72.1,-12.9,29.74,WNW,292,3.6,4.0,3,7.71,,---,0.00,VWS V14.00,2013-05-24 13:18:00,
2013-05-24 09:19:00,72.1,-12.9,29.74,NNW,338,1.1,3.6,3,7.71,,---,0.00,VWS V14.00,2013-05-24 13:19:00,
2013-05-24 09:20:00,72.3,-12.8,29.74,South,180,2.0,2.0,3,7.71,,---,0.00,VWS V14.00,2013-05-24 13:20:00,
2013-05-24 09:22:00,72.9,28.2,29.74,West,270,2.5,3.6,19,7.71,,---,0.00,VWS V14.00,2013-05-24 13:22:00,
2013-05-24 09:24:00,72.7,-12.6,29.74,WNW,292,5.8,5.8,3,7.71,,---,0.00,VWS V14.00,2013-05-24 13:24:00,
2013-05-24 09:25:00,72.3,-12.8,29.74,WNW,292,5.4,5.8,3,7.71,,---,0.00,VWS V14.00,2013-05-24 13:25:00,
2013-05-24 09:28:00,72.0,-13.1,29.74,West,270,3.1,4.7,3,7.71,,---,0.00,VWS V14.00,2013-05-24 13:28:00,
2013-05-24 09:29:00,71.8,-13.2,29.74,WNW,292,5.8,6.3,3,7.71,,---,0.00,VWS V14.00,2013-05-24 13:29:00,
2013-05-24 09:31:00,72.1,-12.9,29.74,WNW,292,2.5,4.3,3,7.71,,---,0.00,VWS V14.00,2013-05-24 13:31:00,
2013-05-24 09:32:00,72.1,-12.9,29.74,WNW,292,1.3,2.5,3,7.71,,---,0.00,VWS V14.00,2013-05-24 13:32:00,
2013-05-24 09:33:00,72.3,-12.8,29.74,WNW,292,0.0,1.3,3,7.71,,---,0.00,VWS V14.00,2013-05-24 13:33:00,
2013-05-24 09:34:00,72.5,31.5,29.74,West,270,3.6,3.6,22,7.71,,---,0.00,VWS V14.00,2013-05-24 13:34:00,
2013-05-24 09:36:00,72.0,-13.1,29.74,WNW,292,4.9,5.8,3,7.71,,---,0.00,VWS V14.00,2013-05-24 13:36:00,
2013-05-24 09:39:00,71.6,-13.3,29.74,WNW,292,4.0,7.6,3,7.71,,---,0.00,VWS V14.00,2013-05-24 13:39:00,
2013-05-24 09:40:00,71.6,-13.3,29.74,WNW,292,2.7,4.3,3,7.71,,---,0.00,VWS V14.00,2013-05-24 13:40:00,
2013-05-24 09:45:00,71.8,30.9,29.74,NNE,22,1.6,4.3,22,7.71,,---,0.00,VWS V14.00,2013-05-24 13:45:00,
2013-05-24 09:46:00,72.1,35.4,29.74,WSW,248,1.1,2.0,26,7.71,,---,0.00,VWS V14.00,2013-05-24 13:46:00,
2013-05-24 09:48:00,72.1,34.4,29.74,West,270,4.7,6.3,25,7.71,,---,0.00,VWS V14.00,2013-05-24 13:48:00,
2013-05-24 09:49:00,72.0,31.1,29.74,WNW,292,3.4,5.8,22,7.71,,---,0.00,VWS V14.00,2013-05-24 13:49:00,
2013-05-24 09:51:00,72.9,36.0,29.74,West,270,2.7,6.0,26,7.71,,---,0.00,VWS V14.00,2013-05-24 13:51:00,
2013-05-24 09:53:00,72.7,32.8,29.74,WNW,292,4.0,4.9,23,7.71,,---,0.00,VWS V14.00,2013-05-24 13:53:00,
2013-05-24 09:54:00,72.7,31.7,29.74,WNW,292,6.5,6.7,22,7.71,,---,0.00,VWS V14.00,2013-05-24 13:54:00,
2013-05-24 09:56:00,72.9,34.0,29.74,North,0,2.2,3.1,24,7.71,,---,0.00,VWS V14.00,2013-05-24 13:56:00,
2013-05-24 09:59:00,72.5,32.6,29.74,WNW,292,6.5,6.5,23,7.71,,---,0.00,VWS V14.00,2013-05-24 13:59:00,
2013-05-24 10:01:00,72.7,34.9,29.74,WNW,292,2.7,3.4,25,7.71,,---,0.00,VWS V14.00,2013-05-24 14:01:00,
2013-05-24 10:02:00,72.7,34.9,29.74,West,270,4.0,4.0,25,7.71,,---,0.00,VWS V14.00,2013-05-24 14:02:00,
2013-05-24 10:05:00,72.5,34.7,29.74,WNW,292,3.4,3.4,25,7.71,,---,0.00,VWS V14.00,2013-05-24 14:05:00,
2013-05-24 10:07:00,72.7,35.8,29.74,WNW,292,4.5,5.6,26,7.71,,---,0.00,VWS V14.00,2013-05-24 14:07:00,
2013-05-24 10:08:00,72.5,34.7,29.74,WNW,292,3.6,8.5,25,7.71,,---,0.00,VWS V14.00,2013-05-24 14:08:00,
2013-05-24 10:10:00,73.0,36.2,29.74,WSW,248,2.0,3.1,26,7.71,,---,0.00,VWS V14.00,2013-05-24 14:10:00,
2013-05-24 10:11:00,73.2,36.3,29.74,WNW,292,3.6,3.8,26,7.71,,---,0.00,VWS V14.00,2013-05-24 14:11:00,
2013-05-24 10:13:00,73.4,36.5,29.74,NNW,338,3.4,4.9,26,7.71,,---,0.00,VWS V14.00,2013-05-24 14:13:00,
2013-05-24 10:14:00,73.4,36.5,29.74,WSW,248,1.6,4.0,26,7.71,,---,0.00,VWS V14.00,2013-05-24 14:14:00,
2013-05-24 10:16:00,73.0,35.2,29.74,NNW,338,2.9,7.2,25,7.71,,---,0.00,VWS V14.00,2013-05-24 14:16:00,
2013-05-24 10:17:00,73.0,35.2,29.74,NNW,338,3.4,5.6,25,7.71,,---,0.00,VWS V14.00,2013-05-24 14:17:00,
2013-05-24 10:20:00,73.4,35.5,29.71,North,0,2.9,4.7,25,7.71,,---,0.00,VWS V14.00,2013-05-24 14:20:00,
2013-05-24 10:24:00,73.2,35.3,29.71,West,270,2.0,3.8,25,7.71,,---,0.00,VWS V14.00,2013-05-24 14:24:00,
2013-05-24 10:25:00,73.2,35.3,29.71,NW,315,6.3,6.3,25,7.71,,---,0.00,VWS V14.00,2013-05-24 14:25:00,
2013-05-24 10:27:00,73.0,35.2,29.71,West,270,2.7,3.1,25,7.71,,---,0.00,VWS V14.00,2013-05-24 14:27:00,
2013-05-24 10:29:00,73.0,35.2,29.71,NW,315,1.1,3.4,25,7.71,,---,0.00,VWS V14.00,2013-05-24 14:29:00,
2013-05-24 10:30:00,73.0,35.2,29.71,WNW,292,4.0,4.0,25,7.71,,---,0.00,VWS V14.00,2013-05-24 14:30:00,
2013-05-24 10:31:00,73.2,36.3,29.71,WNW,292,1.1,4.0,26,7.71,,---,0.00,VWS V14.00,2013-05-24 14:31:00,
2013-05-24 10:34:00,73.2,36.3,29.74,NW,315,4.9,4.9,26,7.71,,---,0.00,VWS V14.00,2013-05-24 14:34:00,
2013-05-24 10:36:00,73.2,36.3,29.74,WNW,292,2.9,2.9,26,7.71,,---,0.00,VWS V14.00,2013-05-24 14:36:00,
2013-05-24 10:37:00,73.2,36.3,29.74,NW,315,4.3,4.9,26,7.71,,---,0.00,VWS V14.00,2013-05-24 14:37:00,
2013-05-24 10:40:00,72.9,35.0,29.74,NNW,338,3.4,6.0,25,7.71,,---,0.00,VWS V14.00,2013-05-24 14:40:00,
2013-05-24 10:42:00,72.7,35.8,29.74,WNW,292,4.0,4.0,26,7.71,,---,0.00,VWS V14.00,2013-05-24 14:42:00,
2013-05-24 10:43:00,72.7,35.8,29.74,West,270,3.8,4.0,26,7.71,,---,0.00,VWS V14.00,2013-05-24 14:43:00,
2013-05-24 10:44:00,72.5,35.7,29.74,West,270,4.3,5.8,26,7.71,,---,0.00,VWS V14.00,2013-05-24 14:44:00,
2013-05-24 10:46:00,72.1,35.4,29.74,West,270,4.0,5.6,26,7.71,,---,0.00,VWS V14.00,2013-05-24 14:46:00,
2013-05-24 10:49:00,72.1,35.4,29.74,NW,315,2.9,3.6,26,7.71,,---,0.00,VWS V14.00,2013-05-24 14:49:00,
2013-05-24 10:50:00,72.0,35.2,29.74,WNW,292,3.4,5.4,26,7.71,,---,0.00,VWS V14.00,2013-05-24 14:50:00,
2013-05-24 10:52:00,72.0,35.2,29.74,West,270,1.3,1.6,26,7.71,,---,0.00,VWS V14.00,2013-05-24 14:52:00,
2013-05-24 10:53:00,72.0,35.2,29.74,WSW,248,0.9,2.5,26,7.71,,---,0.00,VWS V14.00,2013-05-24 14:53:00,
2013-05-24 10:55:00,72.0,36.2,29.74,West,270,3.4,4.0,27,7.71,,---,0.00,VWS V14.00,2013-05-24 14:55:00,
2013-05-24 10:57:00,71.6,35.9,29.74,WNW,292,5.4,5.4,27,7.71,,---,0.00,VWS V14.00,2013-05-24 14:57:00,
2013-05-24 11:00:00,71.4,35.7,29.74,NNW,338,4.7,6.5,27,7.71,,---,0.00,VWS V14.00,2013-05-24 15:00:00,
2013-05-24 11:02:00,71.2,35.6,29.74,West,270,2.5,3.8,27,7.71,,---,0.00,VWS V14.00,2013-05-24 15:02:00,
2013-05-24 11:03:00,71.1,35.4,29.74,NW,315,3.8,3.8,27,7.71,,---,0.00,VWS V14.00,2013-05-24 15:03:00,
2013-05-24 11:04:00,71.1,36.3,29.74,West,270,2.5,3.8,28,7.71,,---,0.00,VWS V14.00,2013-05-24 15:04:00,
2013-05-24 11:06:00,70.9,36.2,29.74,WSW,248,5.6,5.6,28,7.71,,---,0.00,VWS V14.00,2013-05-24 15:06:00,
2013-05-24 11:09:00,70.9,37.1,29.74,WNW,292,6.0,6.0,29,7.71,,---,0.00,VWS V14.00,2013-05-24 15:09:00,
2013-05-24 11:10:00,70.9,37.1,29.74,WNW,292,6.0,6.0,29,7.71,,---,0.00,VWS V14.00,2013-05-24 15:10:00,
2013-05-24 11:11:00,70.9,37.1,29.74,WSW,248,1.1,172.5,29,23.17,,---,16.41,VWS V14.00,2013-05-24 15:11:00,
2013-05-24 11:12:00,70.9,37.1,29.74,WNW,292,3.4,3.4,29,23.17,,---,16.41,VWS V14.00,2013-05-24 15:12:00,
2013-05-24 11:16:00,71.1,38.1,29.74,NW,315,0.9,2.2,30,23.17,,---,16.41,VWS V14.00,2013-05-24 15:16:00,
2013-05-24 11:17:00,71.1,38.1,29.74,NNW,338,4.3,4.3,30,23.17,,---,16.41,VWS V14.00,2013-05-24 15:17:00,
2013-05-24 11:21:00,71.1,38.9,29.74,NNE,22,2.7,3.1,31,23.17,,---,16.41,VWS V14.00,2013-05-24 15:21:00,
2013-05-24 11:22:00,71.1,38.9,29.74,West,270,2.2,4.7,31,23.17,,---,16.41,VWS V14.00,2013-05-24 15:22:00,
2013-05-24 11:23:00,71.1,38.1,29.74,NNE,22,3.1,3.1,30,23.17,,---,16.41,VWS V14.00,2013-05-24 15:23:00,
2013-05-24 11:24:00,71.1,38.1,29.74,NNW,338,2.7,3.1,30,23.17,,---,16.41,VWS V14.00,2013-05-24 15:24:00,
2013-05-24 11:26:00,70.9,37.9,29.74,NW,315,2.0,5.4,30,23.17,,---,16.41,VWS V14.00,2013-05-24 15:26:00,
2013-05-24 11:28:00,70.7,37.8,29.74,North,0,1.3,3.4,30,23.17,,---,16.41,VWS V14.00,2013-05-24 15:28:00,
2013-05-24 11:31:00,70.5,37.6,29.74,NNW,338,2.0,2.9,30,23.17,,---,16.41,VWS V14.00,2013-05-24 15:31:00,
2013-05-24 11:32:00,70.5,37.6,29.74,WNW,292,0.0,2.0,30,23.17,,---,16.41,VWS V14.00,2013-05-24 15:32:00,
2013-05-24 11:33:00,70.5,37.6,29.74,NW,315,3.8,3.8,30,23.17,,---,16.41,VWS V14.00,2013-05-24 15:33:00,
2013-05-24 11:36:00,70.3,37.5,29.74,NW,315,3.4,3.4,30,23.17,,---,16.41,VWS V14.00,2013-05-24 15:36:00,
2013-05-24 11:38:00,70.3,37.5,29.74,WNW,292,1.6,3.4,30,23.17,,---,16.41,VWS V14.00,2013-05-24 15:38:00,
2013-05-24 11:39:00,70.3,37.5,29.74,WNW,292,3.4,3.4,30,23.17,,---,16.41,VWS V14.00,2013-05-24 15:39:00,
2013-05-24 11:41:00,70.2,37.3,29.74,NNW,338,4.7,4.7,30,23.17,,---,16.41,VWS V14.00,2013-05-24 15:41:00,
2013-05-24 11:44:00,69.8,36.1,29.74,West,270,4.9,12.5,29,23.17,,---,16.41,VWS V14.00,2013-05-24 15:44:00,
2013-05-24 11:45:00,68.0,31.9,29.74,WNW,292,3.6,9.4,26,23.17,,---,16.41,VWS V14.00,2013-05-24 15:45:00,
2013-05-24 11:46:00,67.3,31.2,29.74,North,0,10.5,10.5,26,23.17,,---,16.41,VWS V14.00,2013-05-24 15:46:00,
2013-05-24 11:47:00,66.7,30.8,29.74,NNW,338,4.3,10.5,26,23.17,,---,16.41,VWS V14.00,2013-05-24 15:47:00,
2013-05-24 11:51:00,65.1,30.3,29.74,NNW,338,5.8,5.8,27,23.17,,---,16.41,VWS V14.00,2013-05-24 15:51:00,
2013-05-24 11:53:00,64.0,29.4,29.74,NNE,22,7.6,8.5,27,23.17,,---,16.41,VWS V14.00,2013-05-24 15:53:00,
2013-05-24 11:54:00,63.7,29.1,29.74,North,0,6.0,10.3,27,23.17,,---,16.41,VWS V14.00,2013-05-24 15:54:00,
2013-05-24 11:55:00,63.5,29.0,29.74,NNE,22,2.9,10.1,27,23.17,,---,16.41,VWS V14.00,2013-05-24 15:55:00,
2013-05-24 11:58:00,63.1,29.5,29.74,NNW,338,7.4,7.4,28,23.17,,---,16.41,VWS V14.00,2013-05-24 15:58:00,
2013-05-24 12:00:00,62.6,29.9,29.74,SSE,158,11.0,11.0,29,23.17,,---,16.41,VWS V14.00,2013-05-24 16:00:00,
2013-05-24 12:02:00,62.2,30.5,29.74,NNE,22,3.6,9.6,30,23.17,,---,16.41,VWS V14.00,2013-05-24 16:02:00,
2013-05-24 12:03:00,62.1,30.3,29.74,North,0,5.4,10.1,30,23.17,,---,16.41,VWS V14.00,2013-05-24 16:03:00,
2013-05-24 12:05:00,62.2,31.2,29.74,NW,315,3.4,4.0,31,23.17,,---,16.41,VWS V14.00,2013-05-24 16:05:00,
2013-05-24 12:06:00,62.1,31.9,29.74,NNE,22,5.4,7.4,32,23.17,,---,16.41,VWS V14.00,2013-05-24 16:06:00,
2013-05-24 12:08:00,61.7,31.6,29.74,NNE,22,3.6,9.6,32,23.17,,---,16.41,VWS V14.00,2013-05-24 16:08:00,
2013-05-24 12:10:00,61.2,30.3,29.74,NW,315,6.5,7.8,31,23.17,,---,16.41,VWS V14.00,2013-05-24 16:10:00,
2013-05-24 12:12:00,61.0,30.9,29.74,West,270,8.1,12.1,32,23.17,,---,16.41,VWS V14.00,2013-05-24 16:12:00,
2013-05-24 12:14:00,60.8,31.5,29.74,SW,225,5.8,8.5,33,23.17,,---,16.41,VWS V14.00,2013-05-24 16:14:00,
2013-05-24 12:16:00,60.4,31.2,29.74,WSW,248,5.8,10.3,33,23.17,,---,16.41,VWS V14.00,2013-05-24 16:16:00,
2013-05-24 12:18:00,59.9,30.8,29.74,NE,45,9.8,11.0,33,23.17,,---,16.41,VWS V14.00,2013-05-24 16:18:00,
2013-05-24 12:19:00,59.7,30.6,29.74,West,270,4.0,9.8,33,23.17,,---,16.41,VWS V14.00,2013-05-24 16:19:00,
2013-05-24 12:24:00,59.7,31.3,29.74,North,0,7.4,10.1,34,23.17,,---,16.41,VWS V14.00,2013-05-24 16:24:00,
2013-05-24 12:25:00,59.5,31.2,29.74,WSW,248,4.7,7.6,34,23.17,,---,16.41,VWS V14.00,2013-05-24 16:25:00,
2013-05-24 12:26:00,59.5,31.2,29.74,WNW,292,6.9,8.5,34,23.17,,---,16.41,VWS V14.00,2013-05-24 16:26:00,
2013-05-24 12:27:00,59.4,31.0,29.74,NNE,22,10.3,10.3,34,23.17,,---,16.41,VWS V14.00,2013-05-24 16:27:00,
2013-05-24 12:31:00,58.5,30.2,29.74,NW,315,6.0,10.5,34,23.17,,---,16.41,VWS V14.00,2013-05-24 16:31:00,
2013-05-24 12:32:00,58.6,30.4,29.74,NNE,22,9.8,9.8,34,23.17,,---,16.41,VWS V14.00,2013-05-24 16:32:00,
2013-05-24 12:36:00,58.3,30.1,29.76,WNW,292,3.8,12.1,34,23.17,,---,16.41,VWS V14.00,2013-05-24 16:36:00,
2013-05-24 12:37:00,58.6,31.1,29.76,NW,315,3.1,4.7,35,23.17,,---,16.41,VWS V14.00,2013-05-24 16:37:00,
2013-05-24 12:38:00,58.8,31.2,29.76,NW,315,5.8,9.0,35,23.17,,---,16.41,VWS V14.00,2013-05-24 16:38:00,
2013-05-24 12:40:00,58.6,31.1,29.76,NNW,338,8.5,11.9,35,23.17,,---,16.41,VWS V14.00,2013-05-24 16:40:00,
2013-05-24 12:41:00,58.5,30.9,29.76,WNW,292,3.4,12.8,35,23.17,,---,16.41,VWS V14.00,2013-05-24 16:41:00,
2013-05-24 12:42:00,58.6,31.1,29.76,NW,315,5.6,5.8,35,23.17,,---,16.41,VWS V14.00,2013-05-24 16:42:00,
2013-05-24 12:47:00,59.0,31.4,29.76,NW,315,5.8,9.8,35,23.17,,---,16.41,VWS V14.00,2013-05-24 16:47:00,
2013-05-24 12:48:00,59.0,31.4,29.76,NNE,22,8.5,8.5,35,23.17,,---,16.41,VWS V14.00,2013-05-24 16:48:00,
2013-05-24 12:49:00,59.0,31.4,29.76,NW,315,6.5,13.0,35,23.17,,---,16.41,VWS V14.00,2013-05-24 16:49:00,
2013-05-24 12:50:00,59.0,31.4,29.76,North,0,12.8,12.8,35,23.17,,---,16.41,VWS V14.00,2013-05-24 16:50:00,
2013-05-24 12:51:00,59.0,31.4,29.76,NNE,22,9.8,12.8,35,23.17,,---,16.41,VWS V14.00,2013-05-24 16:51:00,
2013-05-24 12:55:00,59.0,31.4,29.76,SSW,202,6.0,9.8,35,23.17,,---,16.41,VWS V14.00,2013-05-24 16:55:00,
2013-05-24 12:57:00,58.5,30.9,29.76,NNE,22,12.1,12.1,35,23.17,,---,16.41,VWS V14.00,2013-05-24 16:57:00,
2013-05-24 12:58:00,58.3,30.1,29.76,NNW,338,4.0,12.1,34,23.17,,---,16.41,VWS V14.00,2013-05-24 16:58:00,
2013-05-24 13:00:00,58.1,29.9,29.76,WNW,292,2.9,15.2,34,23.17,,---,16.41,VWS V14.00,2013-05-24 17:00:00,
2013-05-24 13:02:00,57.9,29.0,29.76,West,270,3.1,10.5,33,23.17,,---,16.41,VWS V14.00,2013-05-24 17:02:00,
2013-05-24 13:03:00,57.9,29.0,29.76,North,0,7.8,14.3,33,23.17,,---,16.41,VWS V14.00,2013-05-24 17:03:00,
2013-05-24 13:05:00,58.1,29.9,29.79,WNW,292,4.0,6.0,34,23.17,,---,16.41,VWS V14.00,2013-05-24 17:05:00,
2013-05-24 13:06:00,58.1,29.9,29.79,WNW,292,8.7,8.7,34,23.17,,---,16.41,VWS V14.00,2013-05-24 17:06:00,
2013-05-24 13:07:00,58.1,29.9,29.79,WNW,292,7.6,8.7,34,23.17,,---,16.41,VWS V14.00,2013-05-24 17:07:00,
2013-05-24 13:10:00,58.1,29.9,29.79,West,270,5.4,10.1,34,23.17,,---,16.41,VWS V14.00,2013-05-24 17:10:00,
2013-05-24 13:12:00,58.3,30.8,29.79,NNW,338,7.4,7.4,35,23.17,,---,16.41,VWS V14.00,2013-05-24 17:12:00,
2013-05-24 13:14:00,58.1,30.6,29.79,NNW,338,4.0,4.3,35,23.17,,---,16.41,VWS V14.00,2013-05-24 17:14:00,
2013-05-24 13:16:00,58.3,30.8,29.79,WNW,292,10.3,10.3,35,23.17,,---,16.41,VWS V14.00,2013-05-24 17:16:00,
2013-05-24 13:17:00,58.3,30.8,29.79,NW,315,3.8,10.3,35,23.17,,---,16.41,VWS V14.00,2013-05-24 17:17:00,
2013-05-24 13:19:00,58.3,30.8,29.79,NNW,338,5.8,10.5,35,23.17,,---,16.41,VWS V14.00,2013-05-24 17:19:00,
2013-05-24 13:20:00,58.5,30.9,29.79,NNW,338,6.9,6.9,35,23.17,,---,16.41,VWS V14.00,2013-05-24 17:20:00,
2013-05-24 13:23:00,58.1,29.9,29.79,NNW,338,4.0,12.1,34,23.17,,---,16.41,VWS V14.00,2013-05-24 17:23:00,
2013-05-24 13:24:00,57.9,29.7,29.79,NNW,338,6.3,6.3,34,23.17,,---,16.41,VWS V14.00,2013-05-24 17:24:00,
2013-05-24 13:27:00,57.7,29.6,29.79,NW,315,6.3,7.8,34,23.17,,---,16.41,VWS V14.00,2013-05-24 17:27:00,
2013-05-24 13:29:00,57.6,29.4,29.79,WSW,248,10.3,13.2,34,23.17,,---,16.41,VWS V14.00,2013-05-24 17:29:00,
2013-05-24 13:31:00,57.4,28.5,29.79,NNW,338,7.8,10.7,33,23.17,,---,16.41,VWS V14.00,2013-05-24 17:31:00,
2013-05-24 13:34:00,57.6,29.4,29.79,NW,315,3.1,7.6,34,23.17,,---,16.41,VWS V14.00,2013-05-24 17:34:00,
2013-05-24 13:35:00,57.7,29.6,29.79,NNW,338,8.5,8.5,34,23.17,,---,16.41,VWS V14.00,2013-05-24 17:35:00,
2013-05-24 13:36:00,57.7,29.6,29.79,ENE,68,8.7,12.5,34,23.17,,---,16.41,VWS V14.00,2013-05-24 17:36:00,
2013-05-24 13:37:00,57.6,29.4,29.79,NNE,22,6.0,8.7,34,23.17,,---,16.41,VWS V14.00,2013-05-24 17:37:00,
2013-05-24 13:40:00,57.2,28.4,29.79,WNW,292,7.4,8.1,33,23.17,,---,16.41,VWS V14.00,2013-05-24 17:40:00,
2013-05-24 13:43:00,57.4,28.5,29.79,North,0,11.4,12.1,33,23.17,,---,16.41,VWS V14.00,2013-05-24 17:43:00,
2013-05-24 13:44:00,57.2,28.4,29.79,North,0,8.5,11.4,33,23.17,,---,16.41,VWS V14.00,2013-05-24 17:44:00,
2013-05-24 13:46:00,57.0,27.5,29.79,NNE,22,7.8,8.5,32,23.17,,---,16.41,VWS V14.00,2013-05-24 17:46:00,
2013-05-24 13:50:00,57.2,28.4,29.79,West,270,7.6,10.3,33,23.17,,---,16.41,VWS V14.00,2013-05-24 17:50:00,
2013-05-24 13:51:00,57.0,29.0,29.79,NNW,338,4.0,11.2,34,23.17,,---,16.41,VWS V14.00,2013-05-24 17:51:00,
2013-05-24 13:52:00,57.0,29.0,29.79,North,0,3.8,12.5,34,23.17,,---,16.41,VWS V14.00,2013-05-24 17:52:00,
2013-05-24 13:56:00,56.7,27.9,29.79,WNW,292,4.3,14.5,33,23.17,,---,16.41,VWS V14.00,2013-05-24 17:56:00,
2013-05-24 13:57:00,56.7,27.9,29.79,NNW,338,3.8,7.6,33,23.17,,---,16.41,VWS V14.00,2013-05-24 17:57:00,
2013-05-24 13:58:00,56.7,27.9,29.79,NNW,338,7.2,7.2,33,23.17,,---,16.41,VWS V14.00,2013-05-24 17:58:00,
2013-05-24 13:59:00,56.7,27.9,29.79,West,270,7.8,10.5,33,23.17,,---,16.41,VWS V14.00,2013-05-24 17:59:00,
2013-05-24 14:02:00,56.3,26.8,29.79,NNW,338,8.1,11.4,32,23.17,,---,16.41,VWS V14.00,2013-05-24 18:02:00,
2013-05-24 14:04:00,56.1,26.7,29.79,WNW,292,5.4,15.4,32,23.17,,---,16.41,VWS V14.00,2013-05-24 18:04:00,
2013-05-24 14:07:00,55.9,25.8,29.79,NNW,338,7.8,16.8,31,23.17,,---,16.41,VWS V14.00,2013-05-24 18:07:00,
2013-05-24 14:08:00,55.8,26.4,29.79,NNW,338,4.3,7.8,32,23.17,,---,16.41,VWS V14.00,2013-05-24 18:08:00,
2013-05-24 14:12:00,55.6,26.2,29.79,NW,315,6.9,11.0,32,23.17,,---,16.41,VWS V14.00,2013-05-24 18:12:00,
2013-05-24 14:13:00,55.6,26.2,29.79,NNW,338,5.4,10.1,32,23.17,,---,16.41,VWS V14.00,2013-05-24 18:13:00,
2013-05-24 14:14:00,55.8,26.4,29.79,WNW,292,4.3,10.1,32,23.17,,---,16.41,VWS V14.00,2013-05-24 18:14:00,
2013-05-24 14:16:00,55.9,27.3,29.79,NNE,22,5.4,7.4,33,23.17,,---,16.41,VWS V14.00,2013-05-24 18:16:00,
2013-05-24 14:17:00,55.8,27.1,29.79,NW,315,2.9,6.5,33,23.17,,---,16.41,VWS V14.00,2013-05-24 18:17:00,
2013-05-24 14:20:00,55.9,27.3,29.79,NNW,338,6.5,12.1,33,23.17,,---,16.41,VWS V14.00,2013-05-24 18:20:00,
2013-05-24 14:23:00,55.8,26.4,29.79,NE,45,3.6,5.4,32,23.17,,---,16.41,VWS V14.00,2013-05-24 18:23:00,
2013-05-24 14:24:00,55.8,26.4,29.79,WNW,292,10.7,10.7,32,23.17,,---,16.41,VWS V14.00,2013-05-24 18:24:00,
2013-05-24 14:25:00,55.8,26.4,29.79,WSW,248,5.6,10.7,32,23.17,,---,16.41,VWS V14.00,2013-05-24 18:25:00,
2013-05-24 14:27:00,55.9,27.3,29.79,NNW,338,10.5,11.0,33,23.17,,---,16.41,VWS V14.00,2013-05-24 18:27:00,
2013-05-24 14:28:00,55.9,27.3,29.79,NNE,22,6.5,14.8,33,23.17,,---,16.41,VWS V14.00,2013-05-24 18:28:00,
2013-05-24 14:29:00,55.9,27.3,29.79,WSW,248,6.3,6.9,33,23.17,,---,16.41,VWS V14.00,2013-05-24 18:29:00,
2013-05-24 14:32:00,55.6,26.2,29.79,WNW,292,8.7,8.7,32,23.17,,---,16.41,VWS V14.00,2013-05-24 18:32:00,
2013-05-24 14:33:00,55.6,26.2,29.79,NNE,22,9.0,10.5,32,23.17,,---,16.41,VWS V14.00,2013-05-24 18:33:00,
2013-05-24 14:34:00,55.8,26.4,29.79,WNW,292,8.7,9.0,32,23.17,,---,16.41,VWS V14.00,2013-05-24 18:34:00,
2013-05-24 14:39:00,55.8,27.1,29.79,WNW,292,7.6,14.5,33,23.17,,---,16.41,VWS V14.00,2013-05-24 18:39:00,
2013-05-24 14:40:00,55.8,26.4,29.79,WNW,292,3.4,7.8,32,23.17,,---,16.41,VWS V14.00,2013-05-24 18:40:00,
2013-05-24 14:41:00,55.8,26.4,29.79,North,0,7.2,7.2,32,23.17,,---,16.41,VWS V14.00,2013-05-24 18:41:00,
2013-05-24 14:42:00,55.8,27.1,29.79,NE,45,8.7,8.7,33,23.17,,---,16.41,VWS V14.00,2013-05-24 18:42:00,
2013-05-24 14:46:00,55.6,27.0,29.79,NW,315,2.7,2.9,33,23.17,,---,16.41,VWS V14.00,2013-05-24 18:46:00,
2013-05-24 14:48:00,55.2,26.6,29.79,WNW,292,16.8,16.8,33,23.17,,---,16.41,VWS V14.00,2013-05-24 18:48:00,
2013-05-24 14:51:00,55.0,26.5,29.79,WNW,292,8.7,10.1,33,23.17,,---,16.41,VWS V14.00,2013-05-24 18:51:00,
2013-05-24 14:54:00,55.2,26.6,29.79,WSW,248,7.6,7.6,33,23.17,,---,16.41,VWS V14.00,2013-05-24 18:54:00,
2013-05-24 14:55:00,55.0,26.5,29.79,NNE,22,9.0,9.0,33,23.17,,---,16.41,VWS V14.00,2013-05-24 18:55:00,
2013-05-24 14:56:00,54.9,26.3,29.79,WNW,292,8.7,14.8,33,23.17,,---,16.41,VWS V14.00,2013-05-24 18:56:00,
2013-05-24 15:00:00,55.0,26.5,29.79,WNW,292,6.3,15.9,33,23.17,,---,16.41,VWS V14.00,2013-05-24 19:00:00,
2013-05-24 15:01:00,54.9,26.3,29.79,West,270,8.1,8.7,33,23.17,,---,16.41,VWS V14.00,2013-05-24 19:01:00,
2013-05-24 15:04:00,54.9,26.3,29.82,West,270,3.6,6.3,33,23.17,,---,16.41,VWS V14.00,2013-05-24 19:04:00,
2013-05-24 15:05:00,55.0,27.2,29.82,WNW,292,6.5,10.5,34,23.17,,---,16.41,VWS V14.00,2013-05-24 19:05:00,
2013-05-24 15:09:00,54.9,27.8,29.82,WNW,292,6.0,7.8,35,23.17,,---,16.41,VWS V14.00,2013-05-24 19:09:00,
2013-05-24 15:10:00,54.9,27.8,29.82,NNW,338,14.3,14.3,35,23.17,,---,16.41,VWS V14.00,2013-05-24 19:10:00,
2013-05-24 15:11:00,54.9,27.8,29.82,WNW,292,6.0,14.3,35,23.17,,---,16.41,VWS V14.00,2013-05-24 19:11:00,
2013-05-24 15:13:00,55.0,27.9,29.82,NW,315,8.7,8.7,35,23.17,,---,16.41,VWS V14.00,2013-05-24 19:13:00,
2013-05-24 15:14:00,55.0,27.9,29.82,WNW,292,1.6,8.7,35,23.17,,---,16.41,VWS V14.00,2013-05-24 19:14:00,
2013-05-24 15:17:00,55.0,28.6,29.82,WSW,248,6.0,6.3,36,23.17,,---,16.41,VWS V14.00,2013-05-24 19:17:00,
2013-05-24 15:19:00,55.0,28.6,29.82,NNW,338,3.1,7.2,36,23.17,,---,16.41,VWS V14.00,2013-05-24 19:19:00,
2013-05-24 15:20:00,55.2,28.8,29.82,NW,315,7.8,9.4,36,23.17,,---,16.41,VWS V14.00,2013-05-24 19:20:00,
2013-05-24 15:21:00,55.2,28.8,29.82,WNW,292,5.8,7.8,36,23.17,,---,16.41,VWS V14.00,2013-05-24 19:21:00,
2013-05-24 15:22:00,55.2,28.8,29.82,NW,315,7.4,10.7,36,23.17,,---,16.41,VWS V14.00,2013-05-24 19:22:00,
2013-05-24 15:24:00,55.2,28.8,29.82,NNW,338,7.8,8.7,36,23.17,,---,16.41,VWS V14.00,2013-05-24 19:24:00,
2013-05-24 15:26:00,55.4,28.9,29.82,NW,315,3.8,10.3,36,23.17,,---,16.41,VWS V14.00,2013-05-24 19:26:00,
2013-05-24 15:27:00,55.4,28.9,29.82,ENE,68,5.6,11.0,36,23.17,,---,16.41,VWS V14.00,2013-05-24 19:27:00,
2013-05-24 15:28:00,55.4,28.9,29.82,NNW,338,9.4,9.4,36,23.17,,---,16.41,VWS V14.00,2013-05-24 19:28:00,
2013-05-24 15:31:00,55.6,29.1,29.82,North,0,2.9,6.0,36,23.17,,---,16.41,VWS V14.00,2013-05-24 19:31:00,
2013-05-24 15:32:00,55.8,29.2,29.82,WSW,248,3.4,8.5,36,23.17,,---,16.41,VWS V14.00,2013-05-24 19:32:00,
2013-05-24 15:36:00,55.8,29.2,29.79,NNW,338,7.6,9.8,36,23.17,,---,16.41,VWS V14.00,2013-05-24 19:36:00,
2013-05-24 15:40:00,55.8,29.2,29.79,WNW,292,7.4,8.7,36,23.17,,---,16.41,VWS V14.00,2013-05-24 19:40:00,
2013-05-24 15:42:00,55.9,29.4,29.79,NW,315,10.7,10.7,36,23.17,,---,16.41,VWS V14.00,2013-05-24 19:42:00,
2013-05-24 15:43:00,55.9,29.4,29.79,NNW,338,4.0,10.7,36,23.17,,---,16.41,VWS V14.00,2013-05-24 19:43:00,
2013-05-24 15:45:00,55.9,29.4,29.79,NW,315,6.3,7.8,36,23.17,,---,16.41,VWS V14.00,2013-05-24 19:45:00,
2013-05-24 15:48:00,56.1,29.5,29.79,North,0,3.8,5.8,36,23.17,,---,16.41,VWS V14.00,2013-05-24 19:48:00,
2013-05-24 15:49:00,56.1,29.5,29.82,North,0,5.4,10.7,36,23.17,,---,16.41,VWS V14.00,2013-05-24 19:49:00,
2013-05-24 15:50:00,56.1,29.5,29.82,NNW,338,3.8,6.3,36,23.17,,---,16.41,VWS V14.00,2013-05-24 19:50:00,
2013-05-24 15:51:00,56.1,29.5,29.82,NNW,338,6.3,6.3,36,23.17,,---,16.41,VWS V14.00,2013-05-24 19:51:00,
2013-05-24 15:52:00,55.9,29.4,29.82,NW,315,4.3,7.6,36,23.17,,---,16.41,VWS V14.00,2013-05-24 19:52:00,
2013-05-24 15:57:00,56.3,29.7,29.82,NW,315,4.3,5.8,36,23.17,,---,16.41,VWS V14.00,2013-05-24 19:57:00,
2013-05-24 15:58:00,56.3,29.7,29.82,NNW,338,9.4,9.4,36,23.17,,---,16.41,VWS V14.00,2013-05-24 19:58:00,
2013-05-24 15:59:00,56.3,29.7,29.82,NW,315,9.0,9.4,36,23.17,,---,16.41,VWS V14.00,2013-05-24 19:59:00,
2013-05-24 16:02:00,56.3,29.7,29.82,West,270,6.0,6.0,36,23.17,,---,16.41,VWS V14.00,2013-05-24 20:02:00,
2013-05-24 16:03:00,56.3,29.7,29.82,NW,315,7.8,8.7,36,23.17,,---,16.41,VWS V14.00,2013-05-24 20:03:00,
2013-05-24 16:04:00,56.1,29.5,29.82,West,270,4.3,9.2,36,23.17,,---,16.41,VWS V14.00,2013-05-24 20:04:00,
2013-05-24 16:06:00,56.1,29.5,29.82,WNW,292,2.9,3.8,36,23.17,,---,16.41,VWS V14.00,2013-05-24 20:06:00,
2013-05-24 16:09:00,55.8,29.2,29.82,WNW,292,6.3,6.3,36,23.17,,---,16.41,VWS V14.00,2013-05-24 20:09:00,
2013-05-24 16:11:00,55.9,29.4,29.82,WNW,292,9.0,9.0,36,23.17,,---,16.41,VWS V14.00,2013-05-24 20:11:00,
2013-05-24 16:12:00,55.8,29.2,29.82,NW,315,3.8,14.1,36,23.17,,---,16.41,VWS V14.00,2013-05-24 20:12:00,
2013-05-24 16:13:00,55.6,28.4,29.82,WNW,292,6.0,9.6,35,23.17,,---,16.41,VWS V14.00,2013-05-24 20:13:00,
2013-05-24 16:15:00,55.6,29.1,29.82,NNW,338,7.6,7.6,36,23.17,,---,16.41,VWS V14.00,2013-05-24 20:15:00,
2013-05-24 16:18:00,55.6,29.1,29.82,NNE,22,7.4,7.4,36,23.17,,---,16.41,VWS V14.00,2013-05-24 20:18:00,
2013-05-24 16:20:00,55.8,29.2,29.82,NNW,338,6.0,6.0,36,51.36,,---,10.19,VWS V14.00,2013-05-24 20:20:00,
2013-05-24 16:24:00,55.9,29.4,29.82,North,0,4.9,7.4,36,51.36,,---,10.19,VWS V14.00,2013-05-24 20:24:00,
2013-05-24 16:25:00,55.9,29.4,29.82,NE,45,9.8,9.8,36,51.36,,---,10.19,VWS V14.00,2013-05-24 20:25:00,
2013-05-24 16:28:00,55.9,29.4,29.82,NNW,338,6.3,7.2,36,51.36,,---,10.19,VWS V14.00,2013-05-24 20:28:00,
2013-05-24 16:29:00,55.8,29.2,29.82,North,0,3.8,12.1,36,51.36,,---,10.19,VWS V14.00,2013-05-24 20:29:00,
2013-05-24 16:31:00,55.9,29.4,29.82,WNW,292,7.6,7.6,36,51.36,,---,10.19,VWS V14.00,2013-05-24 20:31:00,
2013-05-24 16:32:00,55.9,29.4,29.82,NW,315,6.9,9.2,36,51.36,,---,10.19,VWS V14.00,2013-05-24 20:32:00,
2013-05-24 16:36:00,55.9,29.4,29.82,NW,315,3.1,4.7,36,51.36,,---,10.19,VWS V14.00,2013-05-24 20:36:00,
2013-05-24 16:37:00,55.9,29.4,29.82,WNW,292,3.4,10.1,36,51.36,,---,10.19,VWS V14.00,2013-05-24 20:37:00,
2013-05-24 16:38:00,55.9,29.4,29.82,WNW,292,2.7,8.7,36,51.36,,---,10.19,VWS V14.00,2013-05-24 20:38:00,
2013-05-24 16:39:00,55.9,29.4,29.82,NW,315,9.8,9.8,36,51.36,,---,10.19,VWS V14.00,2013-05-24 20:39:00,
2013-05-24 16:41:00,55.9,29.4,29.82,NNW,338,7.8,7.8,36,51.36,,---,10.19,VWS V14.00,2013-05-24 20:41:00,
2013-05-24 16:42:00,55.8,29.2,29.82,NNW,338,10.1,10.5,36,51.36,,---,10.19,VWS V14.00,2013-05-24 20:42:00,
2013-05-24 16:44:00,55.8,29.2,29.82,North,0,6.7,10.1,36,51.36,,---,10.19,VWS V14.00,2013-05-24 20:44:00,
2013-05-24 16:45:00,55.6,29.1,29.82,NW,315,6.0,10.3,36,51.36,,---,10.19,VWS V14.00,2013-05-24 20:45:00,
2013-05-24 16:46:00,55.6,29.1,29.82,WNW,292,10.3,10.5,36,51.36,,---,10.19,VWS V14.00,2013-05-24 20:46:00,
2013-05-24 16:48:00,55.6,28.4,29.82,NNW,338,6.3,6.3,35,51.36,,---,10.19,VWS V14.00,2013-05-24 20:48:00,
2013-05-24 16:50:00,55.9,29.4,29.82,WSW,248,2.5,6.9,36,51.36,,---,10.19,VWS V14.00,2013-05-24 20:50:00,
2013-05-24 16:54:00,55.8,29.2,29.82,WNW,292,7.6,8.1,36,51.36,,---,10.19,VWS V14.00,2013-05-24 20:54:00,
2013-05-24 16:55:00,55.6,28.4,29.82,West,270,3.4,7.6,35,51.36,,---,10.19,VWS V14.00,2013-05-24 20:55:00,
2013-05-24 16:58:00,55.6,28.4,29.82,WNW,292,3.8,10.3,35,51.36,,---,10.19,VWS V14.00,2013-05-24 20:58:00,
2013-05-24 16:59:00,55.6,28.4,29.82,West,270,9.6,9.6,35,51.36,,---,10.19,VWS V14.00,2013-05-24 20:59:00,
2013-05-24 17:00:00,55.6,28.4,29.82,West,270,4.0,9.6,35,51.36,,---,10.19,VWS V14.00,2013-05-24 21:00:00,
2013-05-24 17:01:00,55.6,28.4,29.82,NW,315,8.5,10.1,35,51.36,,---,10.19,VWS V14.00,2013-05-24 21:01:00,
2013-05-24 17:04:00,55.6,28.4,29.85,WNW,292,6.5,9.8,35,51.36,,---,10.19,VWS V14.00,2013-05-24 21:04:00,
2013-05-24 17:05:00,55.4,28.2,29.85,NNW,338,10.5,10.5,35,51.36,,---,10.19,VWS V14.00,2013-05-24 21:05:00,
2013-05-24 17:06:00,55.4,28.2,29.85,North,0,4.3,10.5,35,51.36,,---,10.19,VWS V14.00,2013-05-24 21:06:00,
2013-05-24 17:09:00,55.2,28.1,29.85,NE,45,2.5,11.4,35,51.36,,---,10.19,VWS V14.00,2013-05-24 21:09:00,
2013-05-24 17:10:00,55.2,28.8,29.85,North,0,2.9,8.7,36,51.36,,---,10.19,VWS V14.00,2013-05-24 21:10:00,
2013-05-24 17:13:00,55.4,28.2,29.85,WNW,292,10.7,10.7,35,51.36,,---,10.19,VWS V14.00,2013-05-24 21:13:00,
2013-05-24 17:15:00,55.4,28.2,29.85,West,270,8.1,8.1,35,51.36,,---,10.19,VWS V14.00,2013-05-24 21:15:00,
2013-05-24 17:18:00,55.4,28.2,29.85,West,270,4.3,6.0,35,51.36,,---,10.19,VWS V14.00,2013-05-24 21:18:00,
2013-05-24 17:20:00,55.6,28.4,29.85,NNW,338,5.4,5.8,35,51.36,,---,10.19,VWS V14.00,2013-05-24 21:20:00,
2013-05-24 17:23:00,55.6,28.4,29.85,WNW,292,2.9,4.0,35,51.36,,---,10.19,VWS V14.00,2013-05-24 21:23:00,
2013-05-24 17:24:00,55.6,28.4,29.85,North,0,10.1,10.7,35,51.36,,---,10.19,VWS V14.00,2013-05-24 21:24:00,
2013-05-24 17:25:00,55.6,29.1,29.85,WNW,292,3.1,10.7,36,51.36,,---,10.19,VWS V14.00,2013-05-24 21:25:00,
2013-05-24 17:27:00,55.6,29.1,29.85,North,0,5.4,8.1,36,51.36,,---,10.19,VWS V14.00,2013-05-24 21:27:00,
2013-05-24 17:29:00,55.6,28.4,29.85,WNW,292,4.3,8.7,35,51.36,,---,10.19,VWS V14.00,2013-05-24 21:29:00,
2013-05-24 17:30:00,55.6,29.1,29.85,NW,315,7.4,10.5,36,51.36,,---,10.19,VWS V14.00,2013-05-24 21:30:00,
2013-05-24 17:34:00,55.4,28.2,29.85,NNE,22,4.0,12.1,35,51.36,,---,10.19,VWS V14.00,2013-05-24 21:34:00,
2013-05-24 17:35:00,55.4,28.2,29.85,WNW,292,4.5,7.6,35,51.36,,---,10.19,VWS V14.00,2013-05-24 21:35:00,
2013-05-24 17:36:00,55.6,29.1,29.85,WNW,292,7.8,7.8,36,51.36,,---,10.19,VWS V14.00,2013-05-24 21:36:00,
2013-05-24 17:40:00,55.6,28.4,29.85,SSW,202,3.4,12.3,35,51.36,,---,10.19,VWS V14.00,2013-05-24 21:40:00,
2013-05-24 17:41:00,55.6,28.4,29.85,West,270,5.4,6.0,35,51.36,,---,10.19,VWS V14.00,2013-05-24 21:41:00,
2013-05-24 17:43:00,55.4,28.2,29.85,WNW,292,6.3,15.4,35,51.36,,---,10.19,VWS V14.00,2013-05-24 21:43:00,
2013-05-24 17:45:00,55.4,28.2,29.85,NNW,338,4.3,9.6,35,51.36,,---,10.19,VWS V14.00,2013-05-24 21:45:00,
2013-05-24 17:46:00,55.4,28.2,29.85,WNW,292,2.7,8.5,35,51.36,,---,10.19,VWS V14.00,2013-05-24 21:46:00,
2013-05-24 17:47:00,55.6,29.1,29.85,WNW,292,8.1,8.1,36,51.36,,---,10.19,VWS V14.00,2013-05-24 21:47:00,
2013-05-24 17:50:00,55.6,29.1,29.85,North,0,11.2,11.2,36,51.36,,---,10.19,VWS V14.00,2013-05-24 21:50:00,
2013-05-24 17:51:00,55.4,28.2,29.85,NNE,22,3.6,11.2,35,51.36,,---,10.19,VWS V14.00,2013-05-24 21:51:00,
2013-05-24 17:53:00,55.4,28.2,29.85,NNE,22,5.4,6.3,35,51.36,,---,10.19,VWS V14.00,2013-05-24 21:53:00,
2013-05-24 17:55:00,55.6,29.1,29.85,NNW,338,4.9,5.6,36,51.36,,---,10.19,VWS V14.00,2013-05-24 21:55:00,
2013-05-24 17:56:00,55.6,29.1,29.85,WNW,292,2.7,4.9,36,51.36,,---,10.19,VWS V14.00,2013-05-24 21:56:00,
2013-05-24 18:00:00,55.4,28.9,29.85,North,0,6.5,8.7,36,51.36,,---,10.19,VWS V14.00,2013-05-24 22:00:00,
2013-05-24 18:01:00,55.4,28.9,29.85,NW,315,3.8,6.5,36,51.36,,---,10.19,VWS V14.00,2013-05-24 22:01:00,
2013-05-24 18:05:00,55.4,28.2,29.85,North,0,5.4,10.5,35,51.36,,---,10.19,VWS V14.00,2013-05-24 22:05:00,
2013-05-24 18:06:00,55.2,28.8,29.85,NE,45,6.3,10.5,36,51.36,,---,10.19,VWS V14.00,2013-05-24 22:06:00,
2013-05-24 18:08:00,55.0,28.6,29.85,West,270,4.0,7.8,36,51.36,,---,10.19,VWS V14.00,2013-05-24 22:08:00,
2013-05-24 18:09:00,55.2,28.8,29.85,WNW,292,6.5,6.5,36,51.36,,---,10.19,VWS V14.00,2013-05-24 22:09:00,
2013-05-24 18:11:00,55.0,28.6,29.85,NNE,22,6.0,7.8,36,51.36,,---,10.19,VWS V14.00,2013-05-24 22:11:00,
2013-05-24 18:12:00,55.0,27.9,29.85,WNW,292,4.5,6.5,35,51.36,,---,10.19,VWS V14.00,2013-05-24 22:12:00,
2013-05-24 18:16:00,55.0,28.6,29.85,NNW,338,7.6,7.6,36,51.36,,---,10.19,VWS V14.00,2013-05-24 22:16:00,
2013-05-24 18:18:00,54.9,27.8,29.85,WNW,292,5.4,5.4,35,51.36,,---,10.19,VWS V14.00,2013-05-24 22:18:00,
2013-05-24 18:21:00,54.5,27.4,29.85,North,0,9.2,12.5,35,51.36,,---,10.19,VWS V14.00,2013-05-24 22:21:00,
2013-05-24 18:22:00,54.3,25.9,29.85,NNE,22,4.3,9.2,33,51.36,,---,10.19,VWS V14.00,2013-05-24 22:22:00,
2013-05-24 18:23:00,54.3,26.6,29.85,NNE,22,6.5,6.5,34,51.36,,---,10.19,VWS V14.00,2013-05-24 22:23:00,
2013-05-24 18:24:00,54.3,27.3,29.85,NNW,338,5.8,6.5,35,51.36,,---,10.19,VWS V14.00,2013-05-24 22:24:00,
2013-05-24 18:25:00,54.1,25.7,29.85,NNE,22,10.1,11.9,33,51.36,,---,10.19,VWS V14.00,2013-05-24 22:25:00,
2013-05-24 18:28:00,54.3,27.3,29.85,NNE,22,3.6,10.3,35,51.36,,---,10.19,VWS V14.00,2013-05-24 22:28:00,
2013-05-24 18:30:00,54.3,27.3,29.85,NNW,338,3.6,10.3,35,51.36,,---,10.19,VWS V14.00,2013-05-24 22:30:00,
2013-05-24 18:31:00,54.0,25.5,29.85,NNW,338,5.4,5.4,33,51.36,,---,10.19,VWS V14.00,2013-05-24 22:31:00,
2013-05-24 18:32:00,54.0,25.5,29.85,NNE,22,6.3,6.3,33,51.36,,---,10.19,VWS V14.00,2013-05-24 22:32:00,
2013-05-24 18:36:00,53.8,25.4,29.85,NNW,338,5.4,7.6,33,51.36,,---,10.19,VWS V14.00,2013-05-24 22:36:00,
2013-05-24 18:38:00,53.8,25.4,29.85,NNE,22,4.7,10.7,33,51.36,,---,10.19,VWS V14.00,2013-05-24 22:38:00,
2013-05-24 18:41:00,54.0,26.2,29.85,WNW,292,8.1,8.1,34,51.36,,---,10.19,VWS V14.00,2013-05-24 22:41:00,
2013-05-24 18:42:00,54.0,25.5,29.85,NNW,338,5.4,9.4,33,51.36,,---,10.19,VWS V14.00,2013-05-24 22:42:00,
2013-05-24 18:45:00,54.0,26.2,29.85,SW,225,2.9,6.0,34,51.36,,---,10.19,VWS V14.00,2013-05-24 22:45:00,
2013-05-24 18:46:00,54.1,27.1,29.85,WNW,292,10.5,10.5,35,51.36,,---,10.19,VWS V14.00,2013-05-24 22:46:00,
2013-05-24 18:47:00,54.1,27.1,29.85,NNW,338,2.9,10.5,35,51.36,,---,10.19,VWS V14.00,2013-05-24 22:47:00,
2013-05-24 18:48:00,54.0,26.2,29.85,West,270,2.7,5.8,34,51.36,,---,10.19,VWS V14.00,2013-05-24 22:48:00,
2013-05-24 18:51:00,54.0,26.2,29.85,WNW,292,5.4,7.8,34,51.36,,---,10.19,VWS V14.00,2013-05-24 22:51:00,
2013-05-24 18:53:00,53.8,25.4,29.85,NW,315,5.8,7.6,33,51.36,,---,10.19,VWS V14.00,2013-05-24 22:53:00,
2013-05-24 18:54:00,53.8,26.1,29.85,NNW,338,7.6,7.6,34,51.36,,---,10.19,VWS V14.00,2013-05-24 22:54:00,
2013-05-24 18:55:00,53.8,25.4,29.85,WNW,292,10.3,10.3,33,51.36,,---,10.19,VWS V14.00,2013-05-24 22:55:00,
2013-05-24 18:56:00,53.8,25.4,29.85,NW,315,2.0,10.3,33,51.36,,---,10.19,VWS V14.00,2013-05-24 22:56:00,
2013-05-24 18:58:00,53.8,25.4,29.85,WNW,292,3.8,8.7,33,51.36,,---,10.19,VWS V14.00,2013-05-24 22:58:00,
2013-05-24 18:59:00,53.8,26.1,29.85,NNE,22,3.6,3.8,34,51.36,,---,10.19,VWS V14.00,2013-05-24 22:59:00,
2013-05-24 19:03:00,53.4,25.1,29.85,WSW,248,4.0,10.1,33,51.36,,---,10.19,VWS V14.00,2013-05-24 23:03:00,
2013-05-24 19:05:00,53.2,24.2,29.85,NNW,338,4.9,8.7,32,51.36,,---,10.19,VWS V14.00,2013-05-24 23:05:00,
2013-05-24 19:06:00,53.2,24.2,29.85,ENE,68,9.6,9.6,32,51.36,,---,10.19,VWS V14.00,2013-05-24 23:06:00,
2013-05-24 19:07:00,53.1,24.0,29.85,NNW,338,12.1,12.1,32,51.36,,---,10.19,VWS V14.00,2013-05-24 23:07:00,
2013-05-24 19:09:00,53.1,24.0,29.85,NNW,338,3.8,7.4,32,51.36,,---,10.19,VWS V14.00,2013-05-24 23:09:00,
2013-05-24 19:12:00,52.9,23.9,29.85,WNW,292,5.6,8.1,32,51.36,,---,10.19,VWS V14.00,2013-05-24 23:12:00,
2013-05-24 19:15:00,53.1,24.7,29.85,NE,45,4.7,7.4,33,51.36,,---,10.19,VWS V14.00,2013-05-24 23:15:00,
2013-05-24 19:16:00,52.9,23.9,29.85,NNW,338,11.4,11.9,32,51.36,,---,10.19,VWS V14.00,2013-05-24 23:16:00,
2013-05-24 19:18:00,52.5,22.8,29.85,West,270,4.7,14.5,31,51.36,,---,10.19,VWS V14.00,2013-05-24 23:18:00,
2013-05-24 19:19:00,52.3,22.6,29.85,NNW,338,8.1,8.1,31,51.36,,---,10.19,VWS V14.00,2013-05-24 23:19:00,
2013-05-24 19:20:00,52.3,22.6,29.85,WNW,292,5.6,8.1,31,51.36,,---,10.19,VWS V14.00,2013-05-24 23:20:00,
2013-05-24 19:22:00,52.3,22.6,29.85,NNW,338,4.0,14.8,31,51.36,,---,10.19,VWS V14.00,2013-05-24 23:22:00,
2013-05-24 19:24:00,52.3,22.6,29.85,NNE,22,6.5,7.2,31,51.36,,---,10.19,VWS V14.00,2013-05-24 23:24:00,
2013-05-24 19:26:00,52.2,22.5,29.85,NNE,22,8.1,12.8,31,51.36,,---,10.19,VWS V14.00,2013-05-24 23:26:00,
2013-05-24 19:28:00,52.2,22.5,29.85,North,0,2.2,5.8,31,51.36,,---,10.19,VWS V14.00,2013-05-24 23:28:00,
2013-05-24 19:30:00,52.2,22.5,29.85,North,0,13.0,13.0,31,51.36,,---,10.19,VWS V14.00,2013-05-24 23:30:00,
2013-05-24 19:31:00,51.8,20.6,29.85,WNW,292,10.3,13.0,29,51.36,,---,10.19,VWS V14.00,2013-05-24 23:31:00,
2013-05-24 19:33:00,51.4,19.4,29.85,NNW,338,10.3,13.4,28,51.36,,---,10.19,VWS V14.00,2013-05-24 23:33:00,
2013-05-24 19:35:00,51.6,21.2,29.85,NNE,22,4.7,10.5,30,51.36,,---,10.19,VWS V14.00,2013-05-24 23:35:00,
2013-05-24 19:39:00,51.4,21.1,29.85,North,0,5.8,13.0,30,51.36,,---,10.19,VWS V14.00,2013-05-24 23:39:00,
2013-05-24 19:40:00,51.6,21.2,29.85,NNE,22,5.4,7.8,30,51.36,,---,10.19,VWS V14.00,2013-05-24 23:40:00,
2013-05-24 19:41:00,51.6,21.2,29.85,WSW,248,5.4,5.4,30,51.36,,---,10.19,VWS V14.00,2013-05-24 23:41:00,
2013-05-24 19:43:00,51.6,21.2,29.85,NNW,338,8.1,8.1,30,51.36,,---,10.19,VWS V14.00,2013-05-24 23:43:00,
2013-05-24 19:44:00,51.6,21.2,29.85,NW,315,3.6,8.1,30,51.36,,---,10.19,VWS V14.00,2013-05-24 23:44:00,
2013-05-24 19:47:00,51.3,20.9,29.85,NW,315,11.9,12.3,30,51.36,,---,10.19,VWS V14.00,2013-05-24 23:47:00,
2013-05-24 19:49:00,51.4,21.1,29.91,NW,315,5.8,9.4,30,51.36,,---,10.19,VWS V14.00,2013-05-24 23:49:00,
2013-05-24 19:50:00,51.4,21.1,29.91,West,270,4.3,7.4,30,51.36,,---,10.19,VWS V14.00,2013-05-24 23:50:00,
2013-05-24 19:51:00,51.4,21.1,29.91,NNW,338,7.8,7.8,30,51.36,,---,10.19,VWS V14.00,2013-05-24 23:51:00,
2013-05-24 19:56:00,51.3,20.9,29.91,West,270,12.5,14.8,30,51.36,,---,10.19,VWS V14.00,2013-05-24 23:56:00,
2013-05-24 19:57:00,51.3,20.9,29.91,NW,315,4.0,12.5,30,51.36,,---,10.19,VWS V14.00,2013-05-24 23:57:00,
2013-05-24 19:58:00,51.1,20.8,29.91,NNW,338,6.0,9.6,30,51.36,,---,10.19,VWS V14.00,2013-05-24 23:58:00,
2013-05-24 19:59:00,51.1,20.8,29.91,WNW,292,2.9,6.5,30,51.36,,---,10.19,VWS V14.00,2013-05-24 23:59:00,
2013-05-24 20:02:00,51.3,20.9,29.91,NW,315,4.0,6.3,30,51.36,,---,10.19,VWS V14.00,2013-05-25 00:02:00,
2013-05-24 20:03:00,51.3,20.9,29.91,NW,315,6.0,8.1,30,51.36,,---,10.19,VWS V14.00,2013-05-25 00:03:00,
2013-05-24 20:05:00,51.1,20.8,29.88,NNE,22,7.4,7.4,30,51.36,,---,10.19,VWS V14.00,2013-05-25 00:05:00,
2013-05-24 20:06:00,51.1,20.8,29.88,North,0,10.5,10.5,30,51.36,,---,10.19,VWS V14.00,2013-05-25 00:06:00,
2013-05-24 20:07:00,51.1,20.8,29.88,West,270,6.3,10.5,30,51.36,,---,10.19,VWS V14.00,2013-05-25 00:07:00,
2013-05-24 20:10:00,50.9,20.6,29.88,NNE,22,3.1,4.9,30,51.36,,---,10.19,VWS V14.00,2013-05-25 00:10:00,
2013-05-24 20:11:00,50.9,20.6,29.88,SW,225,5.8,6.5,30,51.36,,---,10.19,VWS V14.00,2013-05-25 00:11:00,
2013-05-24 20:12:00,50.9,20.6,29.88,North,0,8.7,13.6,30,51.36,,---,10.19,VWS V14.00,2013-05-25 00:12:00,
2013-05-24 20:16:00,50.9,20.6,29.88,WNW,292,6.0,7.2,30,51.36,,---,10.19,VWS V14.00,2013-05-25 00:16:00,
2013-05-24 20:17:00,50.9,20.6,29.88,NNW,338,12.5,12.5,30,51.36,,---,10.19,VWS V14.00,2013-05-25 00:17:00,
2013-05-24 20:18:00,50.7,19.6,29.88,WNW,292,2.7,12.5,29,51.36,,---,10.19,VWS V14.00,2013-05-25 00:18:00,
2013-05-24 20:21:00,50.7,19.6,29.88,NNW,338,2.9,9.4,29,51.36,,---,10.19,VWS V14.00,2013-05-25 00:21:00,
2013-05-24 20:22:00,50.7,19.6,29.88,West,270,6.7,6.7,29,51.36,,---,10.19,VWS V14.00,2013-05-25 00:22:00,
2013-05-24 20:23:00,50.7,19.6,29.88,WNW,292,3.6,9.8,29,51.36,,---,10.19,VWS V14.00,2013-05-25 00:23:00,
2013-05-24 20:27:00,50.5,19.5,29.88,WSW,248,6.3,9.4,29,51.36,,---,10.19,VWS V14.00,2013-05-25 00:27:00,
2013-05-24 20:28:00,50.5,19.5,29.88,NNW,338,6.5,7.8,29,51.36,,---,10.19,VWS V14.00,2013-05-25 00:28:00,
2013-05-24 20:30:00,50.7,19.6,29.88,NNW,338,7.2,7.2,29,51.36,,---,10.19,VWS V14.00,2013-05-25 00:30:00,
2013-05-24 20:33:00,50.7,19.6,29.88,WNW,292,7.2,7.2,29,51.36,,---,10.19,VWS V14.00,2013-05-25 00:33:00,
2013-05-24 20:34:00,50.9,20.6,29.88,NNE,22,5.8,7.2,30,51.36,,---,10.19,VWS V14.00,2013-05-25 00:34:00,
2013-05-24 20:35:00,50.7,19.6,29.88,NW,315,4.9,13.0,29,51.36,,---,10.19,VWS V14.00,2013-05-25 00:35:00,
2013-05-24 20:36:00,50.7,19.6,29.88,WNW,292,12.8,12.8,29,51.36,,---,10.19,VWS V14.00,2013-05-25 00:36:00,
2013-05-24 20:37:00,50.5,19.5,29.88,WNW,292,4.7,12.8,29,51.36,,---,10.19,VWS V14.00,2013-05-25 00:37:00,
2013-05-24 20:40:00,50.7,19.6,29.88,West,270,4.9,9.0,29,51.36,,---,10.19,VWS V14.00,2013-05-25 00:40:00,
2013-05-24 20:41:00,50.7,19.6,29.88,NNW,338,4.3,8.1,29,51.36,,---,10.19,VWS V14.00,2013-05-25 00:41:00,
2013-05-24 20:45:00,50.5,19.5,29.88,North,0,3.4,10.1,29,51.36,,---,10.19,VWS V14.00,2013-05-25 00:45:00,
2013-05-24 20:46:00,50.5,19.5,29.88,NNE,22,2.9,5.8,29,51.36,,---,10.19,VWS V14.00,2013-05-25 00:46:00,
2013-05-24 20:49:00,50.7,19.6,29.91,West,270,3.1,3.8,29,51.36,,---,10.19,VWS V14.00,2013-05-25 00:49:00,
2013-05-24 20:50:00,50.7,19.6,29.91,NNW,338,4.9,11.0,29,51.36,,---,10.19,VWS V14.00,2013-05-25 00:50:00,
2013-05-24 20:55:00,50.5,19.5,29.91,NNW,338,7.6,7.6,29,51.36,,---,10.19,VWS V14.00,2013-05-25 00:55:00,
2013-05-24 20:56:00,50.5,19.5,29.91,NW,315,9.8,9.8,29,51.36,,---,10.19,VWS V14.00,2013-05-25 00:56:00,
2013-05-24 20:58:00,50.4,19.3,29.91,WSW,248,5.6,12.8,29,51.36,,---,10.19,VWS V14.00,2013-05-25 00:58:00,
2013-05-24 21:00:00,50.4,18.5,29.91,West,270,10.3,13.2,28,51.36,,---,10.19,VWS V14.00,2013-05-25 01:00:00,
2013-05-24 21:04:00,50.4,19.3,29.91,NNW,338,2.0,5.6,29,51.36,,---,10.19,VWS V14.00,2013-05-25 01:04:00,
2013-05-24 21:05:00,50.4,19.3,29.91,NNW,338,4.3,9.6,29,51.36,,---,10.19,VWS V14.00,2013-05-25 01:05:00,
2013-05-24 21:06:00,50.4,19.3,29.91,North,0,7.4,10.1,29,51.36,,---,10.19,VWS V14.00,2013-05-25 01:06:00,
2013-05-24 21:09:00,50.4,19.3,29.91,WNW,292,11.0,12.1,29,51.36,,---,10.19,VWS V14.00,2013-05-25 01:09:00,
2013-05-24 21:11:00,50.4,19.3,29.91,WNW,292,8.5,8.5,29,51.36,,---,10.19,VWS V14.00,2013-05-25 01:11:00,
2013-05-24 21:13:00,50.4,19.3,29.91,WNW,292,2.7,8.7,29,51.36,,---,10.19,VWS V14.00,2013-05-25 01:13:00,
2013-05-24 21:15:00,50.4,19.3,29.91,NNW,338,5.6,6.5,29,51.36,,---,10.19,VWS V14.00,2013-05-25 01:15:00,
2013-05-24 21:18:00,50.4,19.3,29.91,WNW,292,5.8,6.5,29,51.36,,---,10.19,VWS V14.00,2013-05-25 01:18:00,
2013-05-24 21:20:00,50.2,19.2,29.91,WNW,292,8.5,8.5,29,51.36,,---,10.19,VWS V14.00,2013-05-25 01:20:00,
2013-05-24 21:23:00,50.2,18.4,29.91,NW,315,3.8,12.8,28,51.36,,---,10.19,VWS V14.00,2013-05-25 01:23:00,
2013-05-24 21:25:00,50.2,19.2,29.91,NNE,22,12.3,12.3,29,51.36,,---,10.19,VWS V14.00,2013-05-25 01:25:00,
2013-05-24 21:27:00,50.0,19.0,29.91,WNW,292,7.2,8.7,29,51.36,,---,10.19,VWS V14.00,2013-05-25 01:27:00,
2013-05-24 21:28:00,50.0,19.0,29.91,North,0,7.2,7.6,29,51.36,,---,10.19,VWS V14.00,2013-05-25 01:28:00,
2013-05-24 21:29:00,49.8,18.9,29.91,NW,315,14.8,14.8,29,51.36,,---,10.19,VWS V14.00,2013-05-25 01:29:00,
2013-05-24 21:34:00,49.8,20.4,29.91,WNW,292,11.0,11.0,31,51.36,,---,10.19,VWS V14.00,2013-05-25 01:34:00,
2013-05-24 21:35:00,49.6,21.0,29.91,NNE,22,6.5,11.0,32,51.36,,---,10.19,VWS V14.00,2013-05-25 01:35:00,
2013-05-24 21:36:00,49.6,21.0,29.91,WNW,292,4.5,8.7,32,51.36,,---,10.19,VWS V14.00,2013-05-25 01:36:00,
2013-05-24 21:37:00,49.6,21.0,29.91,NNW,338,14.3,14.3,32,51.36,,---,10.19,VWS V14.00,2013-05-25 01:37:00,
2013-05-24 21:40:00,49.6,21.7,29.91,West,270,6.9,6.9,33,51.36,,---,10.19,VWS V14.00,2013-05-25 01:40:00,
2013-05-24 21:42:00,49.6,22.4,29.91,WNW,292,7.4,11.0,34,51.36,,---,10.19,VWS V14.00,2013-05-25 01:42:00,
2013-05-24 21:44:00,49.6,23.1,29.91,WNW,292,9.2,10.1,35,51.36,,---,10.19,VWS V14.00,2013-05-25 01:44:00,
2013-05-24 21:45:00,49.6,23.1,29.91,West,270,9.6,12.5,35,51.36,,---,10.19,VWS V14.00,2013-05-25 01:45:00,
2013-05-24 21:47:00,49.6,23.1,29.91,WSW,248,8.7,14.8,35,51.36,,---,10.19,VWS V14.00,2013-05-25 01:47:00,
2013-05-24 21:49:00,49.8,24.0,29.91,NW,315,2.7,7.4,36,51.36,,---,10.19,VWS V14.00,2013-05-25 01:49:00,
2013-05-24 21:51:00,50.0,24.1,29.91,WSW,248,2.7,10.1,36,51.36,,---,10.19,VWS V14.00,2013-05-25 01:51:00,
2013-05-24 21:54:00,50.2,24.3,29.91,North,0,4.0,9.8,36,51.36,,---,10.19,VWS V14.00,2013-05-25 01:54:00,
2013-05-24 21:56:00,50.2,24.3,29.91,WNW,292,12.8,12.8,36,51.36,,---,10.19,VWS V14.00,2013-05-25 01:56:00,
2013-05-24 21:57:00,50.2,24.3,29.91,NW,315,9.8,12.8,36,51.36,,---,10.19,VWS V14.00,2013-05-25 01:57:00,
2013-05-24 21:58:00,50.2,24.3,29.91,WNW,292,5.4,10.1,36,51.36,,---,10.19,VWS V14.00,2013-05-25 01:58:00,
2013-05-24 22:03:00,50.2,24.3,29.91,NW,315,4.7,5.4,36,51.36,,---,10.19,VWS V14.00,2013-05-25 02:03:00,
2013-05-24 22:04:00,50.2,24.3,29.91,NW,315,10.3,10.3,36,51.36,,---,10.19,VWS V14.00,2013-05-25 02:04:00,
2013-05-24 22:05:00,50.2,24.3,29.91,West,270,4.0,10.3,36,51.36,,---,10.19,VWS V14.00,2013-05-25 02:05:00,
2013-05-24 22:06:00,50.2,24.3,29.91,NW,315,10.3,10.3,36,51.36,,---,10.19,VWS V14.00,2013-05-25 02:06:00,
2013-05-24 22:07:00,50.2,24.3,29.91,NNW,338,10.3,10.3,36,51.36,,---,10.19,VWS V14.00,2013-05-25 02:07:00,
2013-05-24 22:09:00,50.4,24.4,29.91,NE,45,8.1,10.3,36,51.36,,---,10.19,VWS V14.00,2013-05-25 02:09:00,
2013-05-24 22:10:00,50.2,24.3,29.91,WSW,248,11.9,11.9,36,51.36,,---,10.19,VWS V14.00,2013-05-25 02:10:00,
2013-05-24 22:13:00,50.4,24.4,29.91,South,180,6.5,6.5,36,51.36,,---,10.19,VWS V14.00,2013-05-25 02:13:00,
2013-05-24 22:14:00,50.4,24.4,29.91,North,0,7.2,7.6,36,51.36,,---,10.19,VWS V14.00,2013-05-25 02:14:00,
2013-05-24 22:16:00,50.2,24.3,29.91,North,0,3.8,10.3,36,51.36,,---,10.19,VWS V14.00,2013-05-25 02:16:00,
2013-05-24 22:19:00,50.4,24.4,29.91,NNW,338,7.6,7.6,36,51.36,,---,10.19,VWS V14.00,2013-05-25 02:19:00,
2013-05-24 22:21:00,50.5,24.6,29.91,NNW,338,3.1,7.4,36,51.36,,---,10.19,VWS V14.00,2013-05-25 02:21:00,
2013-05-24 22:25:00,50.5,24.6,29.91,NNW,338,10.3,10.3,36,51.36,,---,10.19,VWS V14.00,2013-05-25 02:25:00,
2013-05-24 22:26:00,50.4,24.4,29.91,NW,315,3.4,10.7,36,51.36,,---,10.19,VWS V14.00,2013-05-25 02:26:00,
2013-05-24 22:27:00,50.2,24.3,29.91,WSW,248,5.6,7.6,36,51.36,,---,10.19,VWS V14.00,2013-05-25 02:27:00,
2013-05-24 22:30:00,50.4,24.4,29.91,NW,315,4.7,6.0,36,51.36,,---,10.19,VWS V14.00,2013-05-25 02:30:00,
2013-05-24 22:31:00,50.4,24.4,29.91,NW,315,3.6,8.1,36,51.36,,---,10.19,VWS V14.00,2013-05-25 02:31:00,
2013-05-24 22:32:00,50.4,24.4,29.91,NNE,22,9.8,9.8,36,51.36,,---,10.19,VWS V14.00,2013-05-25 02:32:00,
2013-05-24 22:35:00,50.2,24.3,29.91,NW,315,7.4,7.4,36,51.36,,---,10.19,VWS V14.00,2013-05-25 02:35:00,
2013-05-24 22:37:00,50.2,23.6,29.91,WNW,292,10.7,10.7,35,51.36,,---,10.19,VWS V14.00,2013-05-25 02:37:00,
2013-05-24 22:38:00,50.2,23.6,29.91,WNW,292,4.9,10.7,35,51.36,,---,10.19,VWS V14.00,2013-05-25 02:38:00,
2013-05-24 22:42:00,50.2,24.3,29.91,WNW,292,5.8,7.4,36,51.36,,---,10.19,VWS V14.00,2013-05-25 02:42:00,
2013-05-24 22:43:00,50.2,24.3,29.91,NNW,338,4.3,7.8,36,51.36,,---,10.19,VWS V14.00,2013-05-25 02:43:00,
2013-05-24 22:44:00,50.2,24.3,29.91,WSW,248,6.3,12.1,36,51.36,,---,10.19,VWS V14.00,2013-05-25 02:44:00,
2013-05-24 22:45:00,50.2,24.3,29.91,West,270,7.6,10.7,36,51.36,,---,10.19,VWS V14.00,2013-05-25 02:45:00,
2013-05-24 22:49:00,50.0,23.4,29.94,NW,315,4.7,7.8,35,51.36,,---,10.19,VWS V14.00,2013-05-25 02:49:00,
2013-05-24 22:50:00,50.0,23.4,29.94,WNW,292,4.5,8.5,35,51.36,,---,10.19,VWS V14.00,2013-05-25 02:50:00,
2013-05-24 22:52:00,50.2,23.6,29.94,WSW,248,6.0,7.4,35,51.36,,---,10.19,VWS V14.00,2013-05-25 02:52:00,
2013-05-24 22:55:00,50.0,23.4,29.94,WSW,248,7.6,8.5,35,51.36,,---,10.19,VWS V14.00,2013-05-25 02:55:00,
2013-05-24 22:59:00,49.8,24.0,29.94,WSW,248,7.2,11.0,36,51.36,,---,10.19,VWS V14.00,2013-05-25 02:59:00,
2013-05-24 23:03:00,50.0,24.1,29.94,NW,315,9.4,9.4,36,51.36,,---,10.19,VWS V14.00,2013-05-25 03:03:00,
2013-05-24 23:04:00,49.8,24.0,29.91,NW,315,5.8,9.4,36,51.36,,---,10.19,VWS V14.00,2013-05-25 03:04:00,
2013-05-24 23:06:00,50.0,24.1,29.91,NNE,22,4.9,8.5,36,51.36,,---,10.19,VWS V14.00,2013-05-25 03:06:00,
2013-05-24 23:08:00,50.0,24.1,29.91,NNW,338,6.3,6.3,36,51.36,,---,10.19,VWS V14.00,2013-05-25 03:08:00,
2013-05-24 23:10:00,50.2,24.3,29.91,WNW,292,7.8,10.5,36,51.36,,---,10.19,VWS V14.00,2013-05-25 03:10:00,
2013-05-24 23:11:00,50.2,24.3,29.91,WNW,292,6.0,8.1,36,51.36,,---,10.19,VWS V14.00,2013-05-25 03:11:00,
2013-05-24 23:12:00,50.0,24.1,29.91,South,180,3.6,11.0,36,51.36,,---,10.19,VWS V14.00,2013-05-25 03:12:00,
2013-05-24 23:14:00,50.2,24.3,29.91,NW,315,6.5,9.8,36,51.36,,---,10.19,VWS V14.00,2013-05-25 03:14:00,
2013-05-24 23:15:00,50.2,24.3,29.91,North,0,7.8,8.1,36,51.36,,---,10.19,VWS V14.00,2013-05-25 03:15:00,
2013-05-24 23:18:00,50.2,24.9,29.91,WNW,292,11.0,11.0,37,51.36,,---,10.19,VWS V14.00,2013-05-25 03:18:00,
2013-05-24 23:21:00,50.4,25.1,29.91,North,0,11.0,11.0,37,51.36,,---,10.19,VWS V14.00,2013-05-25 03:21:00,
2013-05-24 23:22:00,50.4,25.1,29.91,SSW,202,1.6,11.0,37,51.36,,---,10.19,VWS V14.00,2013-05-25 03:22:00,
2013-05-24 23:26:00,50.4,25.1,29.91,NNW,338,5.4,7.2,37,51.36,,---,10.19,VWS V14.00,2013-05-25 03:26:00,
2013-05-24 23:28:00,50.5,25.2,29.91,NNW,338,7.2,8.1,37,51.36,,---,10.19,VWS V14.00,2013-05-25 03:28:00,
2013-05-24 23:29:00,50.5,25.2,29.91,West,270,8.5,12.3,37,51.36,,---,10.19,VWS V14.00,2013-05-25 03:29:00,
2013-05-24 23:31:00,50.5,25.2,29.91,NW,315,12.5,12.5,37,51.36,,---,10.19,VWS V14.00,2013-05-25 03:31:00,
2013-05-24 23:33:00,50.5,25.2,29.91,WNW,292,8.5,8.5,37,51.36,,---,10.19,VWS V14.00,2013-05-25 03:33:00,
2013-05-24 23:35:00,50.5,25.2,29.91,WNW,292,4.3,10.7,37,51.36,,---,10.19,VWS V14.00,2013-05-25 03:35:00,
2013-05-24 23:36:00,50.7,25.4,29.91,NE,45,2.9,5.6,37,51.36,,---,10.19,VWS V14.00,2013-05-25 03:36:00,
2013-05-24 23:37:00,50.7,25.4,29.91,WNW,292,6.3,6.5,37,51.36,,---,10.19,VWS V14.00,2013-05-25 03:37:00,
2013-05-24 23:38:00,50.7,25.4,29.91,West,270,6.3,6.3,37,51.36,,---,10.19,VWS V14.00,2013-05-25 03:38:00,
2013-05-24 23:39:00,50.7,25.4,29.91,WSW,248,13.4,13.4,37,51.36,,---,10.19,VWS V14.00,2013-05-25 03:39:00,
2013-05-24 23:40:00,50.7,25.4,29.91,North,0,4.7,13.4,37,51.36,,---,10.19,VWS V14.00,2013-05-25 03:40:00,
2013-05-24 23:44:00,50.7,25.4,29.91,WNW,292,7.4,7.4,37,51.36,,---,10.19,VWS V14.00,2013-05-25 03:44:00,
2013-05-24 23:45:00,50.7,25.4,29.91,WNW,292,5.4,8.5,37,51.36,,---,10.19,VWS V14.00,2013-05-25 03:45:00,
2013-05-24 23:46:00,50.7,25.4,29.91,WNW,292,7.8,7.8,37,51.36,,---,10.19,VWS V14.00,2013-05-25 03:46:00,
2013-05-24 23:48:00,50.7,25.4,29.91,NW,315,8.1,12.8,37,51.36,,---,10.19,VWS V14.00,2013-05-25 03:48:00,
2013-05-24 23:52:00,50.7,25.4,29.91,NNW,338,4.3,7.6,37,51.36,,---,10.19,VWS V14.00,2013-05-25 03:52:00,
2013-05-24 23:53:00,50.7,25.4,29.91,NNW,338,7.2,7.2,37,51.36,,---,10.19,VWS V14.00,2013-05-25 03:53:00,
2013-05-24 23:56:00,50.5,25.2,29.91,WNW,292,4.3,9.8,37,51.36,,---,10.19,VWS V14.00,2013-05-25 03:56:00,
2013-05-24 23:58:00,50.5,25.2,29.91,NW,315,14.8,14.8,37,51.36,,---,10.19,VWS V14.00,2013-05-25 03:58:00,